Latitude: N 50° 09' 49" Longitude: W 05° 11' 53" Elevation: 168m ASL

There are 16 visitors online

Adverts

<- Previous Day | Today | Next Day ->

All Data for 22 February 2018

Time
A - D
Temp
A - D
Dew Point
A - D
Humidity
A - D
Pressure
A - D
Wind
A - D
Wind Dir Gust
A - D
Rain Rate
A - D
Rain Total
00:00 1.5 0.9 96 1023.4 1.6 NE 1.6 0.0 0.0
00:02 1.5 0.9 96 1023.4 1.6 NE 1.6 0.0 0.0
00:03 1.5 0.9 96 1023.5 2.2 NE 2.2 0.0 0.0
00:05 1.5 0.9 96 1023.4 2.2 NE 2.2 0.0 0.0
00:06 1.5 0.9 96 1023.3 2.2 NE 2.2 0.0 0.0
00:08 1.5 0.9 96 1023.4 2.2 NE 2.2 0.0 0.0
00:09 1.4 0.8 96 1023.4 1.6 NE 2.2 0.0 0.0
00:11 1.4 0.8 96 1023.4 1.6 NE 2.2 0.0 0.0
00:12 1.4 0.8 96 1023.6 2.2 NE 2.2 0.0 0.0
00:13 1.4 0.8 96 1023.4 1.6 NE 2.2 0.0 0.0
00:14 1.4 0.8 96 1023.4 1.6 NE 2.2 0.0 0.0
00:15 1.4 0.8 96 1023.5 1.6 NE 2.2 0.0 0.0
00:16 1.4 0.8 96 1023.4 1.6 NE 2.2 0.0 0.0
00:17 1.4 0.8 96 1023.5 1.6 NE 2.2 0.0 0.0
00:18 1.4 0.8 96 1023.5 1.6 NE 2.2 0.0 0.0
00:19 1.4 0.8 96 1023.4 0.7 NE 2.2 0.0 0.0
00:20 1.3 0.7 96 1023.3 1.6 NE 2.2 0.0 0.0
00:21 1.3 0.7 96 1023.4 2.2 NE 2.2 0.0 0.0
00:22 1.3 0.7 96 1023.4 2.2 NE 2.2 0.0 0.0
00:23 1.3 0.7 96 1023.4 1.6 NE 2.2 0.0 0.0
00:24 1.3 0.7 96 1023.4 2.2 NE 2.2 0.0 0.0
00:25 1.3 0.7 96 1023.4 0.7 NE 2.2 0.0 0.0
00:26 1.4 0.8 96 1023.3 1.6 NE 2.2 0.0 0.0
00:27 1.4 0.8 96 1023.4 1.6 NE 2.2 0.0 0.0
00:28 1.4 0.8 96 1023.3 2.2 NE 2.2 0.0 0.0
00:29 1.4 0.8 96 1023.3 2.2 NE 2.2 0.0 0.0
00:30 1.5 0.9 96 1023.3 1.6 NE 2.2 0.0 0.0
00:31 1.5 0.9 96 1023.3 2.2 NE 2.2 0.0 0.0
00:32 1.5 1.1 97 1023.2 3.1 NE 3.1 0.0 0.0
00:33 1.6 1.2 97 1023.2 3.1 NE 3.1 0.0 0.0
00:35 1.6 1.2 97 1023.2 2.2 NE 3.1 0.0 0.0
00:36 1.6 1.2 97 1023.3 1.6 NE 3.1 0.0 0.0
00:37 1.6 1.2 97 1023.3 2.2 NE 3.1 0.0 0.0
00:38 1.6 1.2 97 1023.3 2.2 NE 3.1 0.0 0.0
00:39 1.6 1.2 97 1023.2 1.6 NE 3.1 0.0 0.0
00:40 1.6 1.2 97 1023.3 1.6 NE 3.1 0.0 0.0
00:41 1.7 1.3 97 1023.2 1.6 NE 3.1 0.0 0.0
00:42 1.7 1.3 97 1023.1 1.6 NE 3.1 0.0 0.0
00:43 1.7 1.3 97 1023.2 1.6 NE 3.1 0.0 0.0
00:44 1.7 1.3 97 1023.2 0.7 NE 2.2 0.0 0.0
00:45 1.7 1.3 97 1023.2 0.7 NE 2.2 0.0 0.0
00:46 1.7 1.3 97 1023.2 1.6 NE 2.2 0.0 0.0
00:47 1.7 1.3 97 1023.1 1.6 NE 2.2 0.0 0.0
00:48 1.7 1.3 97 1023.1 1.6 NE 1.6 0.0 0.0
00:49 1.7 1.3 97 1023.0 2.2 NE 2.2 0.0 0.0
00:50 1.7 1.3 97 1022.9 2.2 NE 2.2 0.0 0.0
00:51 1.7 1.3 97 1023.1 0.7 NE 2.2 0.0 0.0
00:52 1.7 1.3 97 1023.1 1.6 NE 2.2 0.0 0.0
00:54 1.7 1.3 97 1023.0 1.6 NE 2.2 0.0 0.0
00:55 1.7 1.3 97 1023.0 1.6 NE 2.2 0.0 0.0
00:56 1.7 1.3 97 1023.2 2.2 NE 2.2 0.0 0.0
00:57 1.7 1.3 97 1023.0 1.6 NE 2.2 0.0 0.0
00:58 1.7 1.3 97 1023.0 1.6 NE 2.2 0.0 0.0
00:59 1.8 1.4 97 1023.0 2.2 NE 2.2 0.0 0.0
01:00 1.8 1.4 97 1022.9 2.2 NE 2.2 0.0 0.0
01:01 1.7 1.3 97 1023.0 1.6 NE 2.2 0.0 0.0
01:02 1.8 1.4 97 1022.9 1.6 NE 2.2 0.0 0.0
01:03 1.8 1.4 97 1023.0 1.6 NE 2.2 0.0 0.0
01:04 1.8 1.4 97 1023.1 1.6 NE 2.2 0.0 0.0
01:05 1.8 1.4 97 1023.1 1.6 NE 2.2 0.0 0.0
01:06 1.8 1.4 97 1023.0 1.6 NE 2.2 0.0 0.0
01:08 1.8 1.4 97 1022.9 1.6 NE 2.2 0.0 0.0
01:09 1.8 1.4 97 1022.8 1.6 NE 2.2 0.0 0.0
01:10 1.8 1.4 97 1022.9 1.6 NE 1.6 0.0 0.0
01:11 1.8 1.4 97 1022.8 2.2 NE 2.2 0.0 0.0
01:13 1.8 1.4 97 1022.8 2.2 NE 2.2 0.0 0.0
01:14 1.8 1.4 97 1022.9 2.2 NE 2.2 0.0 0.0
01:15 1.8 1.4 97 1023.0 2.2 NE 2.2 0.0 0.0
01:16 1.8 1.4 97 1023.0 2.2 NE 2.2 0.0 0.0
01:17 1.8 1.4 97 1022.9 2.2 NE 3.1 0.0 0.0
01:18 1.8 1.4 97 1022.9 1.6 NE 3.1 0.0 0.0
01:19 1.8 1.4 97 1023.0 2.2 NE 3.1 0.0 0.0
01:20 1.8 1.5 98 1022.8 2.2 NE 3.1 0.0 0.0
01:22 1.8 1.5 98 1022.9 1.6 NE 3.1 0.0 0.0
01:23 1.9 1.6 98 1022.8 1.6 NE 3.1 0.0 0.0
01:24 1.9 1.6 98 1022.7 1.6 NE 3.1 0.0 0.0
01:25 1.9 1.6 98 1022.7 1.6 NE 3.1 0.0 0.0
01:26 1.9 1.6 98 1022.9 2.2 NE 3.1 0.0 0.0
01:27 1.9 1.6 98 1022.9 1.6 NE 2.2 0.0 0.0
01:28 1.9 1.6 98 1022.9 1.6 NE 2.2 0.0 0.0
01:29 1.9 1.6 98 1022.8 2.2 NE 2.2 0.0 0.0
01:30 1.9 1.6 98 1022.8 3.1 NE 3.1 0.0 0.0
01:31 1.9 1.6 98 1023.0 1.6 NE 3.1 0.0 0.0
01:32 2.0 1.7 98 1022.7 1.6 NE 3.1 0.0 0.0
01:33 2.0 1.7 98 1022.7 1.6 NE 3.1 0.0 0.0
01:34 2.0 1.7 98 1022.8 1.6 NE 3.1 0.0 0.0
01:35 2.0 1.7 98 1022.9 1.6 NE 3.1 0.0 0.0
01:36 2.0 1.7 98 1022.9 1.6 NE 3.1 0.0 0.0
01:37 2.0 1.7 98 1022.8 1.6 NE 3.1 0.0 0.0
01:38 2.0 1.7 98 1022.9 1.6 NE 3.1 0.0 0.0
01:39 2.0 1.7 98 1022.8 0.7 NE 3.1 0.0 0.0
01:40 2.0 1.7 98 1022.8 1.6 NE 3.1 0.0 0.0
01:41 1.9 1.6 98 1022.7 1.6 NE 1.6 0.0 0.0
01:42 1.9 1.6 98 1022.7 1.6 NE 1.6 0.0 0.0
01:44 1.9 1.6 98 1022.7 1.6 NE 2.2 0.0 0.0
01:45 1.9 1.6 98 1022.8 0.7 NE 2.2 0.0 0.0
01:46 1.9 1.6 98 1022.7 2.2 NE 2.2 0.0 0.0
01:47 1.8 1.5 98 1022.7 1.6 NE 2.2 0.0 0.0
01:48 1.8 1.5 98 1022.7 1.6 NE 2.2 0.0 0.0
01:49 1.8 1.5 98 1022.8 1.6 NE 2.2 0.0 0.0
01:50 1.7 1.4 98 1022.8 2.2 NE 2.2 0.0 0.0
01:51 1.7 1.4 98 1022.8 1.6 NE 2.2 0.0 0.0
01:52 1.7 1.4 98 1022.7 2.2 NE 2.2 0.0 0.0
01:53 1.7 1.4 98 1022.8 2.2 NE 2.2 0.0 0.0
01:54 1.6 1.3 98 1022.7 2.2 NE 2.2 0.0 0.0
01:55 1.6 1.3 98 1022.8 1.6 NE 2.2 0.0 0.0
01:56 1.6 1.3 98 1022.8 1.6 NE 2.2 0.0 0.0
01:57 1.6 1.3 98 1022.6 1.6 NE 2.2 0.0 0.0
01:58 1.6 1.3 98 1022.7 1.6 NE 2.2 0.0 0.0
01:59 1.6 1.3 98 1022.7 1.6 NE 2.2 0.0 0.0
02:00 1.5 1.2 98 1022.7 1.6 NE 2.2 0.0 0.0
02:01 1.5 1.2 98 1022.8 1.6 NE 2.2 0.0 0.0
02:02 1.5 1.2 98 1022.7 2.2 NE 2.2 0.0 0.0
02:03 1.5 1.2 98 1022.6 2.2 NE 2.2 0.0 0.0
02:04 1.5 1.2 98 1022.5 1.6 NE 2.2 0.0 0.0
02:05 1.5 1.2 98 1022.5 2.2 NE 2.2 0.0 0.0
02:06 1.5 1.2 98 1022.5 2.2 NE 2.2 0.0 0.0
02:07 1.5 1.2 98 1022.6 2.2 NE 2.2 0.0 0.0
02:09 1.5 1.2 98 1022.5 2.2 NE 2.2 0.0 0.0
02:10 1.5 1.2 98 1022.6 2.2 NE 2.2 0.0 0.0
02:11 1.4 1.1 98 1022.4 1.6 NE 2.2 0.0 0.0
02:12 1.4 1.1 98 1022.4 1.6 NE 2.2 0.0 0.0
02:13 1.4 1.1 98 1022.6 0.7 NE 2.2 0.0 0.0
02:14 1.4 1.1 98 1022.5 2.2 NE 2.2 0.0 0.0
02:15 1.4 1.1 98 1022.6 3.1 NE 3.1 0.0 0.0
02:16 1.4 1.1 98 1022.5 2.2 NE 3.1 0.0 0.0
02:17 1.4 1.1 98 1022.6 3.1 NE 3.1 0.0 0.0
02:18 1.4 1.1 98 1022.6 4.5 NE 4.5 0.0 0.0
02:19 1.4 1.1 98 1022.5 3.1 NE 4.5 0.0 0.0
02:20 1.4 1.1 98 1022.4 2.2 NE 4.5 0.0 0.0
02:21 1.4 1.1 98 1022.5 2.2 NE 4.5 0.0 0.0
02:22 1.4 1.1 98 1022.3 0.7 NE 4.5 0.0 0.0
02:23 1.4 1.1 98 1022.4 2.2 NE 4.5 0.0 0.0
02:24 1.4 1.1 98 1022.5 1.6 NE 4.5 0.0 0.0
02:25 1.4 1.1 98 1022.5 1.6 NE 4.5 0.0 0.0
02:26 1.5 1.2 98 1022.3 1.6 NE 4.5 0.0 0.0
02:27 1.5 1.2 98 1022.4 2.2 NE 4.5 0.0 0.0
02:28 1.5 1.2 98 1022.4 2.2 NE 3.1 0.0 0.0
02:29 1.5 1.2 98 1022.4 1.6 NE 2.2 0.0 0.0
02:30 1.5 1.2 98 1022.3 1.6 NE 2.2 0.0 0.0
02:31 1.6 1.3 98 1022.3 2.2 NE 2.2 0.0 0.0
02:32 1.6 1.3 98 1022.3 1.6 NE 2.2 0.0 0.0
02:33 1.6 1.3 98 1022.4 2.2 NE 2.2 0.0 0.0
02:35 1.6 1.3 98 1022.3 3.1 NE 3.1 0.0 0.0
02:36 1.6 1.3 98 1022.3 3.1 NE 3.1 0.0 0.0
02:37 1.6 1.3 98 1022.2 3.8 NE 3.8 0.0 0.0
02:38 1.6 1.3 98 1022.3 3.1 NE 3.8 0.0 0.0
02:39 1.6 1.3 98 1022.3 3.1 NE 3.8 0.0 0.0
02:40 1.6 1.3 98 1022.1 3.1 NE 3.8 0.0 0.0
02:41 1.6 1.3 98 1022.3 2.2 NE 3.8 0.0 0.0
02:42 1.6 1.5 99 1022.3 2.2 NE 3.8 0.0 0.0
02:43 1.7 1.6 99 1022.3 2.2 NE 3.8 0.0 0.0
02:44 1.7 1.6 99 1022.3 2.2 NE 3.8 0.0 0.0
02:45 1.7 1.6 99 1022.4 1.6 NE 3.8 0.0 0.0
02:46 1.7 1.6 99 1022.2 1.6 NE 3.8 0.0 0.0
02:47 1.7 1.6 99 1022.2 1.6 NE 3.1 0.0 0.0
02:48 1.7 1.6 99 1022.2 1.6 NE 3.1 0.0 0.0
02:49 1.7 1.6 99 1022.2 1.6 NE 3.1 0.0 0.0
02:50 1.7 1.6 99 1022.2 1.6 NE 2.2 0.0 0.0
02:51 1.7 1.6 99 1022.1 1.6 NE 2.2 0.0 0.0
02:52 1.7 1.6 99 1022.2 2.2 NE 2.2 0.0 0.0
02:53 1.7 1.6 99 1022.3 3.1 NE 3.1 0.0 0.0
02:54 1.7 1.6 99 1022.1 3.1 NE 3.1 0.0 0.0
02:55 1.7 1.6 99 1022.1 2.2 NE 3.1 0.0 0.0
02:56 1.8 1.7 99 1022.1 2.2 NE 3.1 0.0 0.0
02:57 1.7 1.6 99 1022.2 2.2 NE 3.1 0.0 0.0
02:58 1.7 1.6 99 1022.1 1.6 NE 3.1 0.0 0.0
03:00 1.8 1.7 99 1022.3 0.7 NE 3.1 0.0 0.0
03:01 1.8 1.7 99 1022.2 1.6 NE 3.1 0.0 0.0
03:02 1.7 1.6 99 1022.1 1.6 NE 3.1 0.0 0.0
03:03 1.8 1.7 99 1022.1 1.6 NE 3.1 0.0 0.0
03:04 1.8 1.7 99 1021.9 1.6 NE 3.1 0.0 0.0
03:05 1.8 1.7 99 1021.9 2.2 NE 2.2 0.0 0.0
03:06 1.8 1.7 99 1022.0 1.6 NE 2.2 0.0 0.0
03:07 1.8 1.7 99 1022.0 1.6 NE 2.2 0.0 0.0
03:08 1.8 1.7 99 1021.9 1.6 NE 2.2 0.0 0.0
03:09 1.8 1.7 99 1022.0 1.6 NE 2.2 0.0 0.0
03:10 1.8 1.7 99 1021.9 1.6 NE 2.2 0.0 0.0
03:11 1.9 1.8 99 1022.0 1.6 NE 2.2 0.0 0.0
03:12 1.9 1.8 99 1022.0 1.6 NE 2.2 0.0 0.0
03:13 1.9 1.8 99 1022.1 0.7 NE 2.2 0.0 0.0
03:14 1.9 1.8 99 1022.0 1.6 NE 2.2 0.0 0.0
03:15 1.9 1.8 99 1022.0 2.2 NE 2.2 0.0 0.0
03:16 1.9 1.8 99 1022.1 2.2 NE 2.2 0.0 0.0
03:17 1.8 1.7 99 1022.0 1.6 NE 2.2 0.0 0.0
03:18 1.8 1.7 99 1022.1 2.2 NE 2.2 0.0 0.0
03:19 1.8 1.7 99 1021.8 1.6 NE 2.2 0.0 0.0
03:20 1.8 1.7 99 1021.8 2.2 NE 2.2 0.0 0.0
03:22 1.8 1.7 99 1022.0 2.2 NE 2.2 0.0 0.0
03:23 1.8 1.7 99 1021.9 2.2 NE 2.2 0.0 0.0
03:24 1.7 1.6 99 1021.9 2.2 NE 2.2 0.0 0.0
03:25 1.7 1.6 99 1021.9 2.2 NE 2.2 0.0 0.0
03:26 1.7 1.6 99 1022.0 1.6 NE 2.2 0.0 0.0
03:27 1.6 1.5 99 1021.9 2.2 NE 2.2 0.0 0.0
03:28 1.6 1.5 99 1021.9 2.2 NE 2.2 0.0 0.0
03:29 1.6 1.5 99 1021.9 1.6 NE 2.2 0.0 0.0
03:30 1.5 1.4 99 1021.9 1.6 NE 2.2 0.0 0.0
03:31 1.5 1.4 99 1021.9 2.2 NE 2.2 0.0 0.0
03:32 1.5 1.4 99 1021.9 1.6 NE 2.2 0.0 0.0
03:33 1.4 1.3 99 1021.8 1.6 NE 2.2 0.0 0.0
03:34 1.4 1.3 99 1021.9 3.1 NE 3.1 0.0 0.0
03:35 1.4 1.3 99 1021.8 2.2 NE 3.1 0.0 0.0
03:36 1.3 1.2 99 1021.8 2.2 NE 3.1 0.0 0.0
03:37 1.3 1.2 99 1021.8 2.2 NE 3.1 0.0 0.0
03:38 1.3 1.2 99 1021.7 1.6 NE 3.1 0.0 0.0
03:39 1.3 1.2 99 1021.8 1.6 NE 3.1 0.0 0.0
03:41 1.3 1.2 99 1021.7 1.6 NE 3.1 0.0 0.0
03:42 1.2 1.1 99 1021.8 2.2 NE 3.1 0.0 0.0
03:43 1.2 1.1 99 1021.8 1.6 NE 3.1 0.0 0.0
03:44 1.2 1.1 99 1021.9 1.6 NE 3.1 0.0 0.0
03:45 1.2 1.1 99 1021.8 1.6 NE 2.2 0.0 0.0
03:46 1.2 1.1 99 1021.9 2.2 NE 2.2 0.0 0.0
03:47 1.2 1.1 99 1021.8 1.6 NE 2.2 0.0 0.0
03:48 1.1 1.0 99 1021.7 2.2 NE 2.2 0.0 0.0
03:49 1.1 1.0 99 1021.8 2.2 NE 2.2 0.0 0.0
03:51 1.1 1.0 99 1021.8 1.6 NE 2.2 0.0 0.0
03:52 1.1 1.0 99 1021.7 2.2 NE 2.2 0.0 0.0
03:53 1.1 1.0 99 1021.8 2.2 NE 2.2 0.0 0.0
03:54 1.1 1.0 99 1021.7 1.6 NE 2.2 0.0 0.0
03:55 1.0 0.9 99 1021.8 1.6 NE 2.2 0.0 0.0
03:56 1.0 0.9 99 1021.9 1.6 NE 2.2 0.0 0.0
03:57 1.0 0.9 99 1021.7 2.2 NE 2.2 0.0 0.0
03:58 1.0 0.9 99 1021.9 2.2 NE 2.2 0.0 0.0
03:59 1.0 0.9 99 1021.8 2.2 NE 2.2 0.0 0.0
04:00 1.0 0.9 99 1021.9 2.2 NE 2.2 0.0 0.0
04:01 1.0 0.9 99 1021.7 2.2 NE 2.2 0.0 0.0
04:02 0.9 0.8 99 1021.8 2.2 NE 2.2 0.0 0.0
04:03 0.9 0.8 99 1021.9 2.2 NE 2.2 0.0 0.0
04:05 0.9 0.8 99 1021.9 2.2 NE 2.2 0.0 0.0
04:06 0.9 0.8 99 1021.8 2.2 NE 2.2 0.0 0.0
04:07 0.9 0.8 99 1021.7 2.2 NE 2.2 0.0 0.0
04:08 0.9 0.8 99 1021.9 2.2 NE 2.2 0.0 0.0
04:10 0.9 0.8 99 1021.5 2.2 NE 2.2 0.0 0.0
04:11 0.9 0.8 99 1021.7 2.2 NE 2.2 0.0 0.0
04:12 0.9 0.8 99 1021.9 2.2 NE 2.2 0.0 0.0
04:13 0.9 0.8 99 1021.8 2.2 NE 2.2 0.0 0.0
04:14 0.9 0.8 99 1021.7 1.6 NE 2.2 0.0 0.0
04:15 0.9 0.8 99 1021.7 2.2 NE 2.2 0.0 0.0
04:16 0.9 0.8 99 1021.7 1.6 NE 2.2 0.0 0.0
04:17 0.9 0.8 99 1021.7 0.7 NE 2.2 0.0 0.0
04:18 0.9 0.8 99 1021.7 0.7 NE 2.2 0.0 0.0
04:19 0.8 0.7 99 1021.8 1.6 NE 2.2 0.0 0.0
04:20 0.8 0.7 99 1021.6 2.2 NE 2.2 0.0 0.0
04:21 0.8 0.7 99 1021.5 3.1 NE 3.1 0.0 0.0
04:22 0.8 0.7 99 1021.7 2.2 NE 3.1 0.0 0.0
04:24 0.8 0.7 99 1021.6 3.1 NE 3.1 0.0 0.0
04:26 0.8 0.7 99 1021.5 1.6 NE 3.1 0.0 0.0
04:27 0.9 0.8 99 1021.6 1.6 NE 3.1 0.0 0.0
04:28 0.9 0.8 99 1021.6 1.6 NE 3.1 0.0 0.0
04:29 0.9 0.8 99 1021.6 0.7 NE 3.1 0.0 0.0
04:30 0.9 0.8 99 1021.5 0.0 NE 3.1 0.0 0.0
04:31 0.9 0.8 99 1021.5 0.0 NE 3.1 0.0 0.0
04:33 0.9 0.8 99 1021.5 0.7 NE 3.1 0.0 0.0
04:34 0.9 0.8 99 1021.7 0.7 NE 3.1 0.0 0.0
04:35 0.9 0.8 99 1021.6 1.6 NE 2.2 0.0 0.0
04:36 0.9 0.8 99 1021.7 0.7 NE 1.6 0.0 0.0
04:37 1.0 0.9 99 1021.7 1.6 NE 1.6 0.0 0.0
04:38 1.0 0.9 99 1021.7 0.0 NE 2.2 0.0 0.0
04:39 1.0 0.9 99 1021.7 0.0 NE 2.2 0.0 0.0
04:40 1.0 0.9 99 1021.7 0.7 NE 2.2 0.0 0.0
04:41 1.0 0.9 99 1021.7 1.6 NE 2.2 0.0 0.0
04:42 1.0 0.9 99 1021.7 1.6 NE 2.2 0.0 0.0
04:43 1.1 1.0 99 1021.8 0.7 NE 2.2 0.0 0.0
04:44 1.1 1.0 99 1021.8 1.6 NE 2.2 0.0 0.0
04:45 1.1 1.0 99 1021.7 3.1 NE 3.1 0.0 0.0
04:46 1.1 1.0 99 1021.7 1.6 NE 3.1 0.0 0.0
04:47 1.2 1.1 99 1021.7 1.6 NE 3.1 0.0 0.0
04:48 1.2 1.1 99 1021.7 1.6 NE 3.1 0.0 0.0
04:49 1.2 1.1 99 1021.7 1.6 NE 3.1 0.0 0.0
04:50 1.3 1.2 99 1021.8 0.7 NE 3.1 0.0 0.0
04:51 1.3 1.2 99 1021.7 2.2 NE 3.1 0.0 0.0
04:52 1.3 1.2 99 1021.7 1.6 NE 3.1 0.0 0.0
04:54 1.3 1.2 99 1021.8 0.7 NE 3.1 0.0 0.0
04:55 1.3 1.2 99 1021.9 0.7 NE 3.1 0.0 0.0
04:56 1.3 1.2 99 1021.8 2.2 NE 2.2 0.0 0.0
04:57 1.4 1.3 99 1021.8 1.6 NE 2.2 0.0 0.0
04:58 1.4 1.3 99 1021.6 1.6 NE 2.2 0.0 0.0
04:59 1.4 1.3 99 1021.7 1.6 NE 2.2 0.0 0.0
05:00 1.4 1.3 99 1021.7 1.6 NE 2.2 0.0 0.0
05:01 1.4 1.3 99 1021.7 1.6 NE 2.2 0.0 0.0
05:02 1.4 1.3 99 1021.7 1.6 NE 2.2 0.0 0.0
05:03 1.4 1.3 99 1021.7 1.6 NE 2.2 0.0 0.0
05:04 1.4 1.3 99 1021.6 1.6 NE 2.2 0.0 0.0
05:05 1.4 1.3 99 1021.6 1.6 NE 2.2 0.0 0.0
05:06 1.5 1.4 99 1021.7 2.2 NE 2.2 0.0 0.0
05:07 1.4 1.3 99 1021.7 1.6 NE 2.2 0.0 0.0
05:08 1.4 1.3 99 1021.6 1.6 NE 2.2 0.0 0.0
05:09 1.4 1.3 99 1021.6 1.6 NE 2.2 0.0 0.0
05:10 1.4 1.3 99 1021.6 1.6 NE 2.2 0.0 0.0
05:11 1.4 1.3 99 1021.5 1.6 NE 2.2 0.0 0.0
05:12 1.4 1.3 99 1021.5 1.6 NE 2.2 0.0 0.0
05:14 1.4 1.3 99 1021.7 3.1 NE 3.1 0.0 0.0
05:15 1.4 1.3 99 1021.5 3.1 NE 3.1 0.0 0.0
05:16 1.4 1.3 99 1021.6 3.1 NE 3.1 0.0 0.0
05:17 1.4 1.3 99 1021.6 2.2 NE 3.8 0.0 0.0
05:18 1.4 1.3 99 1021.5 3.1 NE 3.8 0.0 0.0
05:19 1.4 1.3 99 1021.5 3.1 NE 3.8 0.0 0.0
05:20 1.4 1.3 99 1021.6 1.6 NE 3.8 0.0 0.0
05:21 1.4 1.3 99 1021.7 0.7 NE 3.8 0.0 0.0
05:22 1.4 1.3 99 1021.5 2.2 NE 3.8 0.0 0.0
05:23 1.4 1.3 99 1021.6 2.2 NE 3.8 0.0 0.0
05:24 1.5 1.4 99 1021.6 1.6 NE 3.8 0.0 0.0
05:25 1.4 1.3 99 1021.5 1.6 NE 3.8 0.0 0.0
05:26 1.4 1.3 99 1021.7 1.6 NE 3.8 0.0 0.0
05:27 1.4 1.3 99 1021.6 1.6 NE 3.1 0.0 0.0
05:28 1.4 1.3 99 1021.6 0.7 NE 3.1 0.0 0.0
05:29 1.4 1.3 99 1021.6 0.7 NE 2.2 0.0 0.0
05:30 1.4 1.3 99 1021.6 0.7 NE 2.2 0.0 0.0
05:31 1.4 1.3 99 1021.7 0.7 NE 2.2 0.0 0.0
05:32 1.4 1.3 99 1021.6 0.7 NE 2.2 0.0 0.0
05:33 1.4 1.3 99 1021.5 0.7 NE 2.2 0.0 0.0
05:35 1.4 1.3 99 1021.5 0.0 NE 2.2 0.0 0.0
05:36 1.4 1.3 99 1021.6 0.0 NE 2.2 0.0 0.0
05:37 1.4 1.3 99 1021.5 1.6 NE 2.2 0.0 0.0
05:38 1.4 1.3 99 1021.6 1.6 NE 1.6 0.0 0.0
05:39 1.4 1.3 99 1021.5 0.7 NE 1.6 0.0 0.0
05:40 1.4 1.3 99 1021.7 1.6 NE 1.6 0.0 0.0
05:41 1.3 1.2 99 1021.5 0.7 NE 1.6 0.0 0.0
05:42 1.3 1.2 99 1021.6 2.2 NE 2.2 0.0 0.0
05:43 1.4 1.3 99 1021.6 1.6 NE 2.2 0.0 0.0
05:44 1.3 1.2 99 1021.5 1.6 NE 2.2 0.0 0.0
05:45 1.3 1.2 99 1021.7 3.1 NE 3.1 0.0 0.0
05:46 1.4 1.3 99 1021.5 3.1 NE 3.1 0.0 0.0
05:47 1.4 1.3 99 1021.6 3.1 NE 3.1 0.0 0.0
05:48 1.3 1.2 99 1021.6 2.2 NE 3.1 0.0 0.0
05:49 1.4 1.3 99 1021.7 3.1 NE 3.1 0.0 0.0
05:50 1.4 1.3 99 1021.6 2.2 NE 3.1 0.0 0.0
05:51 1.3 1.2 99 1021.6 2.2 NE 3.1 0.0 0.0
05:52 1.3 1.2 99 1021.6 0.7 NE 3.1 0.0 0.0
05:53 1.3 1.2 99 1021.7 3.1 NE 3.1 0.0 0.0
05:54 1.3 1.2 99 1021.5 1.6 NE 3.1 0.0 0.0
05:56 1.3 1.2 99 1021.5 1.6 NE 3.1 0.0 0.0
05:57 1.3 1.2 99 1021.6 0.7 NE 3.1 0.0 0.0
05:58 1.3 1.2 99 1021.7 0.7 NE 3.1 0.0 0.0
05:59 1.3 1.2 99 1021.5 0.7 NE 3.1 0.0 0.0
06:00 1.3 1.2 99 1021.6 0.7 NE 3.1 0.0 0.0
06:01 1.3 1.2 99 1021.5 2.2 NE 3.1 0.0 0.0
06:02 1.3 1.2 99 1021.6 3.1 NE 3.1 0.0 0.0
06:03 1.3 1.2 99 1021.5 2.2 NE 3.1 0.0 0.0
06:04 1.3 1.2 99 1021.5 2.2 NE 3.1 0.0 0.0
06:05 1.3 1.2 99 1021.4 2.2 NE 3.1 0.0 0.0
06:06 1.3 1.2 99 1021.7 1.6 NE 3.1 0.0 0.0
06:07 1.3 1.2 99 1021.5 3.8 NE 3.8 0.0 0.0
06:09 1.3 1.2 99 1021.5 3.1 NE 3.8 0.0 0.0
06:10 1.3 1.2 99 1021.5 3.1 NE 3.8 0.0 0.0
06:12 1.3 1.2 99 1021.5 3.1 NE 3.8 0.0 0.0
06:13 1.3 1.2 99 1021.5 3.1 NE 3.8 0.0 0.0
06:14 1.3 1.2 99 1021.6 3.1 NE 3.8 0.0 0.0
06:15 1.3 1.2 99 1021.5 2.2 NE 3.8 0.0 0.0
06:16 1.3 1.2 99 1021.4 2.2 NE 3.8 0.0 0.0
06:17 1.3 1.2 99 1021.5 2.2 NE 3.8 0.0 0.0
06:18 1.2 1.1 99 1021.6 3.1 NE 3.1 0.0 0.0
06:19 1.2 1.1 99 1021.6 1.6 NE 3.1 0.0 0.0
06:20 1.2 1.1 99 1021.4 1.6 NE 3.1 0.0 0.0
06:21 1.2 1.1 99 1021.7 2.2 NE 3.1 0.0 0.0
06:22 1.2 1.1 99 1021.6 2.2 NE 3.1 0.0 0.0
06:23 1.2 1.1 99 1021.6 2.2 NE 3.1 0.0 0.0
06:24 1.2 1.1 99 1021.5 2.2 NE 3.1 0.0 0.0
06:25 1.2 1.1 99 1021.5 2.2 NE 3.1 0.0 0.0
06:26 1.2 1.1 99 1021.6 1.6 NE 3.1 0.0 0.0
06:27 1.2 1.1 99 1021.5 2.2 NE 3.1 0.0 0.0
06:28 1.2 1.1 99 1021.5 1.6 NE 3.1 0.0 0.0
06:29 1.2 1.1 99 1021.4 1.6 NE 3.1 0.0 0.0
06:31 1.2 1.1 99 1021.5 2.2 NE 3.1 0.0 0.0
06:32 1.2 1.1 99 1021.5 2.2 NE 3.1 0.0 0.0
06:33 1.2 1.1 99 1021.5 1.6 NE 3.1 0.0 0.0
06:34 1.1 1.0 99 1021.5 1.6 NE 3.1 0.0 0.0
06:35 1.1 1.0 99 1021.6 1.6 NE 3.1 0.0 0.0
06:36 1.1 1.0 99 1021.4 2.2 NE 3.1 0.0 0.0
06:37 1.1 1.0 99 1021.5 2.2 NE 3.1 0.0 0.0
06:38 1.1 1.0 99 1021.5 3.1 NE 3.1 0.0 0.0
06:39 1.1 1.0 99 1021.4 3.1 NE 3.1 0.0 0.0
06:40 1.1 1.0 99 1021.5 1.6 NE 3.1 0.0 0.0
06:41 1.1 1.0 99 1021.4 1.6 NE 3.1 0.0 0.0
06:42 1.1 1.0 99 1021.4 1.6 NE 3.1 0.0 0.0
06:43 1.1 1.0 99 1021.4 2.2 NE 3.1 0.0 0.0
06:44 1.1 1.0 99 1021.6 1.6 NE 3.1 0.0 0.0
06:45 1.1 1.0 99 1021.6 1.6 NE 3.1 0.0 0.0
06:46 1.1 1.0 99 1021.5 1.6 NE 3.1 0.0 0.0
06:47 1.1 1.0 99 1021.5 1.6 NE 3.1 0.0 0.0
06:48 1.1 1.0 99 1021.5 0.7 NE 3.1 0.0 0.0
06:49 1.1 1.0 99 1021.4 0.7 NE 3.1 0.0 0.0
06:50 1.1 1.0 99 1021.4 1.6 NE 2.2 0.0 0.0
06:51 1.1 1.0 99 1021.5 0.7 NE 2.2 0.0 0.0
06:52 1.1 1.0 99 1021.5 0.7 NE 2.2 0.0 0.0
06:53 1.1 1.0 99 1021.5 1.6 NE 2.2 0.0 0.0
06:54 1.1 1.0 99 1021.5 2.2 NE 2.2 0.0 0.0
06:55 1.1 1.0 99 1021.5 1.6 NE 2.2 0.0 0.0
06:56 1.1 1.0 99 1021.5 2.2 NE 2.2 0.0 0.0
06:57 1.0 0.9 99 1021.4 1.6 NE 2.2 0.0 0.0
06:58 1.0 0.9 99 1021.4 1.6 NE 2.2 0.0 0.0
06:59 1.0 0.9 99 1021.5 3.1 N 3.1 0.0 0.0
07:00 1.0 0.9 99 1021.5 2.2 N 3.1 0.0 0.0
07:01 1.0 0.9 99 1021.5 1.6 N 3.1 0.0 0.0
07:02 1.0 0.9 99 1021.4 2.2 N 3.1 0.0 0.0
07:03 1.0 0.9 99 1021.4 1.6 N 3.1 0.0 0.0
07:04 1.0 0.9 99 1021.5 1.6 N 3.1 0.0 0.0
07:05 1.0 0.9 99 1021.6 2.2 N 3.1 0.0 0.0
07:06 1.0 0.9 99 1021.6 1.6 N 3.1 0.0 0.0
07:07 1.0 0.9 99 1021.4 1.6 N 3.1 0.0 0.0
07:08 1.0 0.9 99 1021.6 1.6 N 3.1 0.0 0.0
07:09 0.9 0.8 99 1021.6 2.2 N 2.2 0.0 0.0
07:10 0.9 0.8 99 1021.7 2.2 N 2.2 0.0 0.0
07:11 0.9 0.8 99 1021.6 2.2 N 2.2 0.0 0.0
07:12 0.9 0.8 99 1021.6 2.2 N 2.2 0.0 0.0
07:13 0.9 0.8 99 1021.6 2.2 N 2.2 0.0 0.0
07:14 0.9 0.8 99 1021.6 2.2 N 2.2 0.0 0.0
07:15 0.9 0.8 99 1021.6 2.2 N 2.2 0.0 0.0
07:16 0.9 0.8 99 1021.6 2.2 N 2.2 0.0 0.0
07:17 0.9 0.8 99 1021.5 3.8 N 3.8 0.0 0.0
07:18 0.9 0.8 99 1021.4 3.8 N 3.8 0.0 0.0
07:22 0.9 0.8 99 1021.5 3.8 NE 3.8 0.0 0.0
07:23 0.9 0.8 99 1021.4 3.8 NE 3.8 0.0 0.0
07:24 0.9 0.8 99 1021.5 3.8 NE 3.8 0.0 0.0
07:25 0.9 0.8 99 1021.5 3.1 NE 3.8 0.0 0.0
07:26 0.9 0.8 99 1021.6 3.1 NE 3.8 0.0 0.0
07:27 0.9 0.8 99 1021.4 2.2 NE 3.8 0.0 0.0
07:28 0.9 0.8 99 1021.5 3.1 N 3.8 0.0 0.0
07:29 0.9 0.8 99 1021.5 3.1 N 3.8 0.0 0.0
07:30 0.9 0.8 99 1021.6 2.2 N 3.8 0.0 0.0
07:31 0.9 0.8 99 1021.5 2.2 N 3.8 0.0 0.0
07:32 0.9 0.8 99 1021.5 2.2 N 3.8 0.0 0.0
07:33 0.9 0.8 99 1021.5 2.2 N 3.8 0.0 0.0
07:34 0.9 0.8 99 1021.5 3.1 N 3.1 0.0 0.0
07:35 0.9 0.8 99 1021.6 2.2 N 3.1 0.0 0.0
07:36 0.9 0.8 99 1021.5 3.1 N 3.1 0.0 0.0
07:37 0.9 0.8 99 1021.5 3.1 N 3.1 0.0 0.0
07:38 0.9 0.8 99 1021.6 3.1 N 3.1 0.0 0.0
07:39 0.9 0.8 99 1021.6 2.2 N 3.1 0.0 0.0
07:40 0.9 0.8 99 1021.5 3.1 N 3.1 0.0 0.0
07:41 0.9 0.8 99 1021.5 1.6 N 3.1 0.0 0.0
07:42 0.9 0.8 99 1021.5 1.6 N 3.1 0.0 0.0
07:43 0.9 0.8 99 1021.6 3.1 N 3.1 0.0 0.0
07:44 0.9 0.8 99 1021.6 3.1 N 3.1 0.0 0.0
07:45 0.9 0.8 99 1021.7 2.2 N 3.1 0.0 0.0
07:46 0.9 0.8 99 1021.6 2.2 N 3.1 0.0 0.0
07:47 0.9 0.8 99 1021.6 3.1 N 3.1 0.0 0.0
07:48 0.9 0.8 99 1021.6 3.1 N 3.1 0.0 0.0
07:49 0.9 0.8 99 1021.6 2.2 N 3.1 0.0 0.0
07:50 0.9 0.8 99 1021.6 3.1 N 3.1 0.0 0.0
07:51 0.9 0.8 99 1021.7 3.1 NE 3.1 0.0 0.0
07:53 0.9 0.8 99 1021.7 3.1 NNE 3.1 0.0 0.0
07:54 0.9 0.8 99 1021.6 2.2 NE 3.1 0.0 0.0
07:55 0.9 0.8 99 1021.5 2.2 NE 3.1 0.0 0.0
07:56 0.9 0.8 99 1021.7 3.1 NE 3.1 0.0 0.0
07:57 0.9 0.8 99 1021.6 2.2 NE 3.1 0.0 0.0
07:58 0.9 0.8 99 1021.4 1.6 NE 3.1 0.0 0.0
07:59 0.9 0.8 99 1021.7 1.6 NE 3.1 0.0 0.0
08:00 0.9 0.8 99 1021.6 1.6 NE 3.1 0.0 0.0
08:02 0.9 0.8 99 1021.6 1.6 NE 3.1 0.0 0.0
08:03 0.9 0.8 99 1021.6 1.6 NE 3.1 0.0 0.0
08:04 0.9 0.8 99 1021.5 1.6 NE 3.1 0.0 0.0
08:05 1.0 0.9 99 1021.6 3.1 NE 3.1 0.0 0.0
08:06 1.0 0.9 99 1021.7 2.2 NE 3.1 0.0 0.0
08:07 1.0 0.9 99 1021.5 3.1 NE 3.1 0.0 0.0
08:08 1.0 0.9 99 1021.7 2.2 NE 3.1 0.0 0.0
08:10 1.1 1.0 99 1021.6 3.1 N 3.1 0.0 0.0
08:11 1.1 1.0 99 1021.6 2.2 N 3.1 0.0 0.0
08:12 1.1 1.0 99 1021.6 3.8 NE 3.8 0.0 0.0
08:14 1.1 1.0 99 1021.6 3.8 NE 3.8 0.0 0.0
08:15 1.1 1.0 99 1021.5 2.2 NE 3.8 0.0 0.0
08:16 1.2 1.1 99 1021.5 2.2 NE 3.8 0.0 0.0
08:17 1.2 1.1 99 1021.6 0.7 NE 3.8 0.0 0.0
08:18 1.2 1.1 99 1021.6 1.6 NE 3.8 0.0 0.0
08:19 1.2 1.1 99 1021.6 1.6 NE 3.8 0.0 0.0
08:20 1.2 1.1 99 1021.7 0.7 NE 3.8 0.0 0.0
08:21 1.2 1.1 99 1021.8 1.6 NE 3.8 0.0 0.0
08:22 1.2 1.1 99 1021.8 1.6 NE 3.8 0.0 0.0
08:23 1.2 1.1 99 1021.8 1.6 NE 3.8 0.0 0.0
08:24 1.2 1.1 99 1021.7 1.6 NE 2.2 0.0 0.0
08:25 1.2 1.1 99 1021.7 1.6 NE 2.2 0.0 0.0
08:26 1.2 1.1 99 1021.7 1.6 NE 1.6 0.0 0.0
08:27 1.3 1.2 99 1021.7 2.2 NE 2.2 0.0 0.0
08:28 1.3 1.2 99 1021.7 3.1 NE 3.1 0.0 0.0
08:29 1.3 1.2 99 1021.6 2.2 NE 3.1 0.0 0.0
08:30 1.3 1.2 99 1021.7 2.2 NE 3.1 0.0 0.0
08:31 1.3 1.2 99 1021.6 1.6 NE 3.1 0.0 0.0
08:32 1.3 1.2 99 1021.6 1.6 NE 3.1 0.0 0.0
08:33 1.3 1.2 99 1021.7 2.2 NE 3.1 0.0 0.0
08:34 1.4 1.3 99 1021.7 1.6 NE 3.1 0.0 0.0
08:35 1.4 1.3 99 1021.6 2.2 NE 3.1 0.0 0.0
08:36 1.4 1.3 99 1021.7 1.6 NE 3.1 0.0 0.0
08:37 1.4 1.3 99 1021.7 2.2 NE 3.1 0.0 0.0
08:38 1.4 1.3 99 1021.7 2.2 NE 3.1 0.0 0.0
08:39 1.4 1.3 99 1021.7 1.6 NE 2.2 0.0 0.0
08:41 1.5 1.4 99 1021.7 1.6 NE 2.2 0.0 0.0
08:42 1.5 1.4 99 1021.7 1.6 NE 2.2 0.0 0.0
08:43 1.5 1.4 99 1021.7 2.2 NE 2.2 0.0 0.0
08:44 1.5 1.4 99 1021.6 2.2 NE 2.2 0.0 0.0
08:45 1.5 1.4 99 1021.7 2.2 NE 2.2 0.0 0.0
08:46 1.5 1.4 99 1021.7 2.2 NE 2.2 0.0 0.0
08:47 1.5 1.4 99 1021.7 2.2 NE 2.2 0.0 0.0
08:48 1.5 1.4 99 1021.6 2.2 NE 2.2 0.0 0.0
08:49 1.5 1.4 99 1021.6 3.1 NNE 3.1 0.0 0.0
08:50 1.5 1.4 99 1021.7 2.2 NNE 3.1 0.0 0.0
08:51 1.6 1.5 99 1021.7 3.8 N 3.8 0.0 0.0
08:52 1.6 1.5 99 1021.6 2.2 N 3.8 0.0 0.0
08:53 1.6 1.5 99 1021.6 2.2 N 3.8 0.0 0.0
08:54 1.6 1.5 99 1021.7 2.2 N 3.8 0.0 0.0
08:55 1.6 1.5 99 1021.6 2.2 N 3.8 0.0 0.0
08:56 1.6 1.5 99 1021.6 3.1 NE 3.8 0.0 0.0
08:57 1.6 1.5 99 1021.7 3.1 N 3.8 0.0 0.0
08:58 1.6 1.5 99 1021.7 3.1 N 3.8 0.0 0.0
08:59 1.7 1.6 99 1021.7 2.2 N 3.8 0.0 0.0
09:00 1.7 1.6 99 1021.7 2.2 N 3.8 0.0 0.0
09:01 1.7 1.6 99 1021.7 2.2 N 3.1 0.0 0.0
09:02 1.7 1.6 99 1021.7 2.2 N 3.1 0.0 0.0
09:03 1.7 1.6 99 1021.7 2.2 N 3.1 0.0 0.0
09:04 1.7 1.6 99 1021.7 2.2 N 3.1 0.0 0.0
09:05 1.8 1.7 99 1021.7 3.1 N 3.1 0.0 0.0
09:06 1.8 1.7 99 1021.7 3.8 N 3.8 0.0 0.0
09:07 1.8 1.7 99 1021.7 3.8 N 3.8 0.0 0.0
09:08 1.8 1.7 99 1021.6 3.8 N 3.8 0.0 0.0
09:09 1.9 1.8 99 1021.6 3.8 NE 3.8 0.0 0.0
09:11 1.9 1.8 99 1021.6 3.8 N 3.8 0.0 0.0
09:12 1.9 1.8 99 1021.7 3.1 N 3.8 0.0 0.0
09:13 2.0 1.9 99 1021.7 3.1 N 3.8 0.0 0.0
09:14 2.0 1.9 99 1021.8 3.8 N 3.8 0.0 0.0
09:15 2.0 1.9 99 1021.7 2.2 N 3.8 0.0 0.0
09:16 2.0 1.9 99 1021.7 3.1 N 3.8 0.0 0.0
09:17 2.1 2.0 99 1021.7 3.8 N 4.5 0.0 0.0
09:18 2.1 2.0 99 1021.7 3.8 N 4.5 0.0 0.0
09:19 2.2 2.1 99 1021.7 4.5 NE 4.5 0.0 0.0
09:20 2.2 2.1 99 1021.7 3.8 N 4.5 0.0 0.0
09:21 2.2 2.1 99 1021.7 3.1 N 4.5 0.0 0.0
09:22 2.2 2.1 99 1021.7 3.8 N 4.5 0.0 0.0
09:23 2.3 2.2 99 1021.7 3.8 N 4.5 0.0 0.0
09:24 2.3 2.2 99 1021.7 3.1 N 4.5 0.0 0.0
09:25 2.3 2.2 99 1021.7 3.8 N 4.5 0.0 0.0
09:26 2.4 2.3 99 1021.7 3.1 NE 4.5 0.0 0.0
09:27 2.4 2.3 99 1021.7 3.1 NE 4.5 0.0 0.0
09:28 2.4 2.3 99 1021.7 3.1 NE 4.5 0.0 0.0
09:29 2.4 2.3 99 1021.6 4.5 NNE 4.5 0.0 0.0
09:30 2.4 2.3 99 1021.7 3.8 NNE 4.5 0.0 0.0
09:31 2.5 2.4 99 1021.7 3.8 NNE 4.5 0.0 0.0
09:32 2.5 2.4 99 1021.7 4.5 NE 4.5 0.0 0.0
09:33 2.5 2.4 99 1021.6 3.8 NE 4.5 0.0 0.0
09:34 2.5 2.4 99 1021.7 3.8 NE 4.5 0.0 0.0
09:35 2.5 2.4 99 1021.7 3.1 NE 4.5 0.0 0.0
09:36 2.5 2.4 99 1021.6 3.8 NNE 4.5 0.0 0.0
09:37 2.5 2.4 99 1021.7 3.1 NE 4.5 0.0 0.0
09:38 2.5 2.4 99 1021.6 3.1 NE 4.5 0.0 0.0
09:39 2.6 2.5 99 1021.6 2.2 NE 4.5 0.0 0.0
09:40 2.6 2.5 99 1021.8 3.1 NE 4.5 0.0 0.0
09:41 2.6 2.5 99 1021.7 3.8 NE 4.5 0.0 0.0
09:42 2.6 2.5 99 1021.7 1.6 NE 4.5 0.0 0.0
09:43 2.6 2.5 99 1021.7 2.2 NE 3.8 0.0 0.0
09:44 2.6 2.5 99 1021.7 3.8 NE 3.8 0.0 0.0
09:45 2.5 2.4 99 1021.7 3.1 NE 3.8 0.0 0.0
09:46 2.6 2.5 99 1021.6 3.8 NE 3.8 0.0 0.0
09:47 2.6 2.5 99 1021.7 4.5 NE 4.5 0.0 0.0
09:48 2.6 2.5 99 1021.7 4.5 NE 4.5 0.0 0.0
09:49 2.6 2.5 99 1021.7 3.1 NE 4.5 0.0 0.0
09:50 2.6 2.5 99 1021.8 3.1 NE 4.5 0.0 0.0
09:51 2.6 2.5 99 1021.8 3.1 NE 4.5 0.0 0.0
09:52 2.6 2.5 99 1021.7 3.1 NE 4.5 0.0 0.0
09:53 2.6 2.5 99 1021.7 1.6 NE 4.5 0.0 0.0
09:54 2.7 2.6 99 1021.8 2.2 NE 4.5 0.0 0.0
09:56 2.7 2.6 99 1021.7 2.2 NE 4.5 0.0 0.0
09:57 2.7 2.6 99 1021.7 3.8 NE 4.5 0.0 0.0
09:58 2.7 2.6 99 1021.7 1.6 NE 4.5 0.0 0.0
09:59 2.7 2.6 99 1021.9 2.2 NE 4.5 0.0 0.0
10:00 2.7 2.6 99 1021.7 2.2 NE 4.5 0.0 0.0
10:01 2.7 2.6 99 1021.8 2.2 NE 4.5 0.0 0.0
10:02 2.7 2.6 99 1021.7 2.2 NE 3.8 0.0 0.0
10:03 2.7 2.6 99 1021.8 2.2 NE 3.8 0.0 0.0
10:04 2.7 2.6 99 1021.7 2.2 NE 3.8 0.0 0.0
10:05 2.9 2.8 99 1021.6 2.2 NE 3.8 0.0 0.0
10:06 2.9 2.8 99 1021.7 3.1 NE 3.8 0.0 0.0
10:07 2.9 2.8 99 1021.8 3.8 NE 3.8 0.0 0.0
10:08 2.9 2.8 99 1021.7 2.2 NE 3.8 0.0 0.0
10:09 3.0 2.9 99 1021.6 3.1 NE 3.8 0.0 0.0
10:11 3.0 2.9 99 1021.7 2.2 NE 3.8 0.0 0.0
10:12 3.0 2.9 99 1021.7 5.4 NE 5.4 0.0 0.0
10:14 3.1 3.0 99 1021.6 1.6 NE 5.4 0.0 0.0
10:15 3.2 3.1 99 1021.6 2.2 NE 5.4 0.0 0.0
10:16 3.2 3.1 99 1021.7 3.8 NE 5.4 0.0 0.0
10:17 3.3 3.2 99 1021.7 2.2 NE 5.4 0.0 0.0
10:18 3.4 3.3 99 1021.6 1.6 NE 5.4 0.0 0.0
10:19 3.4 3.3 99 1021.6 6.0 NE 6.0 0.0 0.0
10:20 3.5 3.4 99 1021.7 3.8 NE 6.0 0.0 0.0
10:21 3.5 3.4 99 1021.6 3.8 NE 6.9 0.0 0.0
10:22 3.6 3.5 99 1021.6 3.1 NE 6.9 0.0 0.0
10:23 3.6 3.5 99 1021.7 1.6 NE 6.9 0.0 0.0
10:24 3.6 3.5 99 1021.6 2.2 NE 6.9 0.0 0.0
10:25 3.6 3.5 99 1021.6 0.7 NE 6.9 0.0 0.0
10:26 3.7 3.6 99 1021.8 1.6 NE 6.9 0.0 0.0
10:27 3.7 3.6 99 1021.7 2.2 NE 6.9 0.0 0.0
10:28 3.7 3.6 99 1021.7 0.7 NE 6.9 0.0 0.0
10:29 3.7 3.6 99 1021.7 1.6 NE 6.9 0.0 0.0
10:30 3.7 3.6 99 1021.7 2.2 NE 4.5 0.0 0.0
10:31 3.7 3.6 99 1021.6 2.2 NE 4.5 0.0 0.0
10:32 3.8 3.7 99 1021.5 4.5 NE 4.5 0.0 0.0
10:33 3.8 3.7 99 1021.7 6.0 NE 6.0 0.0 0.0
10:34 3.8 3.7 99 1021.5 3.1 N 6.0 0.0 0.0
10:35 3.9 3.8 99 1021.6 4.5 NE 6.0 0.0 0.0
10:36 3.9 3.8 99 1021.6 4.5 NE 6.0 0.0 0.0
10:37 4.0 3.9 99 1021.8 6.0 N 6.0 0.0 0.0
10:38 4.0 3.9 99 1021.7 6.0 NE 6.0 0.0 0.0
10:39 4.0 3.9 99 1021.5 6.0 NE 6.0 0.0 0.0
10:40 4.1 4.0 99 1021.7 4.5 NE 6.0 0.0 0.0
10:41 4.1 4.0 99 1021.7 4.5 NE 6.0 0.0 0.0
10:42 4.1 4.0 99 1021.5 6.0 NE 6.0 0.0 0.0
10:43 4.2 4.1 99 1021.7 3.1 NE 6.0 0.0 0.0
10:44 4.2 4.1 99 1021.6 3.8 NE 6.0 0.0 0.0
10:45 4.3 4.2 99 1021.6 3.1 NE 6.0 0.0 0.0
10:46 4.5 4.4 99 1021.7 6.0 NE 6.0 0.0 0.0
10:47 4.5 4.4 99 1021.7 8.3 NE 8.3 0.0 0.0
10:49 4.6 4.5 99 1021.6 4.5 NE 8.3 0.0 0.0
10:50 4.6 4.5 99 1021.5 6.0 NE 8.3 0.0 0.0
10:51 4.6 4.5 99 1021.5 3.8 N 8.3 0.0 0.0
10:52 4.7 4.6 99 1021.5 6.9 NE 8.3 0.0 0.0
10:53 4.7 4.6 99 1021.6 4.5 NE 8.3 0.0 0.0
10:54 4.7 4.6 99 1021.7 6.9 NE 8.3 0.0 0.0
10:55 4.7 4.6 99 1021.6 6.9 NE 8.3 0.0 0.0
10:56 4.7 4.6 99 1021.7 4.5 NE 8.3 0.0 0.0
10:57 4.7 4.6 99 1021.7 4.5 NE 8.3 0.0 0.0
10:58 4.7 4.6 99 1021.7 2.2 NE 6.9 0.0 0.0
10:59 4.7 4.6 99 1021.7 4.5 NE 6.9 0.0 0.0
11:00 4.7 4.6 99 1021.5 6.0 NE 6.9 0.0 0.0
11:01 4.7 4.6 99 1021.7 6.0 NE 6.9 0.0 0.0
11:02 4.7 4.6 99 1021.6 6.0 NE 6.9 0.0 0.0
11:03 4.7 4.6 99 1021.7 6.0 NE 6.9 0.0 0.0
11:04 4.7 4.6 99 1021.7 6.0 NE 6.9 0.0 0.0
11:05 4.7 4.6 99 1021.6 6.0 NE 6.9 0.0 0.0
11:06 4.7 4.6 99 1021.7 6.0 NE 6.0 0.0 0.0
11:07 4.7 4.6 99 1021.7 6.0 NE 6.0 0.0 0.0
11:08 4.9 4.8 99 1021.5 6.0 NE 6.0 0.0 0.0
11:09 5.0 4.9 99 1021.7 6.0 NE 6.0 0.0 0.0
11:10 5.0 4.9 99 1021.7 3.8 NE 6.0 0.0 0.0
11:11 5.0 4.9 99 1021.6 2.2 NE 6.0 0.0 0.0
11:12 5.0 4.9 99 1021.5 3.1 NE 6.0 0.0 0.0
11:13 5.0 4.9 99 1021.6 2.2 NE 6.0 0.0 0.0
11:14 5.1 5.0 99 1021.6 2.2 NE 6.0 0.0 0.0
11:15 5.1 5.0 99 1021.6 3.1 NE 6.0 0.0 0.0
11:16 5.1 5.0 99 1021.5 5.4 N 6.0 0.0 0.0
11:17 5.2 5.1 99 1021.5 3.8 N 6.0 0.0 0.0
11:18 5.3 5.2 99 1021.5 4.5 NE 6.0 0.0 0.0
11:19 5.3 5.2 99 1021.5 4.5 NE 6.0 0.0 0.0
11:20 5.3 5.2 99 1021.6 3.8 NE 6.0 0.0 0.0
11:21 5.3 5.2 99 1021.5 5.4 N 6.0 0.0 0.0
11:22 5.4 5.3 99 1021.5 5.4 NE 6.0 0.0 0.0
11:23 5.4 5.3 99 1021.5 3.8 NE 6.0 0.0 0.0
11:24 5.4 5.3 99 1021.6 3.1 NE 6.0 0.0 0.0
11:25 5.5 5.4 99 1021.5 6.0 NE 6.0 0.0 0.0
11:26 5.5 5.4 99 1021.4 5.4 NE 6.0 0.0 0.0
11:27 5.6 5.5 99 1021.6 4.5 NE 6.0 0.0 0.0
11:28 5.6 5.5 99 1021.5 4.5 NE 6.0 0.0 0.0
11:29 5.6 5.5 99 1021.5 3.8 NE 6.0 0.0 0.0
11:30 5.6 5.5 99 1021.5 3.1 NE 6.0 0.0 0.0
11:31 5.6 5.5 99 1021.5 5.4 NE 6.0 0.0 0.0
11:32 5.6 5.5 99 1021.4 3.8 NE 6.0 0.0 0.0
11:33 5.6 5.5 99 1021.5 3.1 NE 6.0 0.0 0.0
11:34 5.7 5.6 99 1021.4 5.4 NE 6.0 0.0 0.0
11:35 5.7 5.6 99 1021.4 5.4 N 6.0 0.0 0.0
11:36 5.7 5.6 99 1021.4 7.6 NE 7.6 0.0 0.0
11:37 5.7 5.6 99 1021.4 3.1 NE 7.6 0.0 0.0
11:38 5.7 5.6 99 1021.4 6.9 NE 7.6 0.0 0.0
11:39 5.7 5.6 99 1021.6 3.8 NE 7.6 0.0 0.0
11:40 5.7 5.6 99 1021.3 3.8 NE 7.6 0.0 0.0
11:42 5.7 5.6 99 1021.4 5.4 NE 7.6 0.0 0.0
11:43 5.7 5.6 99 1021.4 3.8 NE 7.6 0.0 0.0
11:44 5.7 5.6 99 1021.4 3.8 NE 7.6 0.0 0.0
11:45 5.7 5.6 99 1021.4 4.5 NE 7.6 0.0 0.0
11:46 5.7 5.6 99 1021.4 5.4 NE 7.6 0.0 0.0
11:47 5.7 5.6 99 1021.3 3.1 NE 6.9 0.0 0.0
11:48 5.7 5.6 99 1021.4 1.6 NE 6.9 0.0 0.0
11:49 5.7 5.6 99 1021.5 5.4 NE 5.4 0.0 0.0
11:50 5.7 5.6 99 1021.4 9.2 NE 9.2 0.0 0.0
11:51 5.7 5.6 99 1021.4 7.6 NE 9.2 0.0 0.0
11:52 5.7 5.6 99 1021.4 6.9 NE 9.2 0.0 0.0
11:53 5.7 5.6 99 1021.5 5.4 NE 9.2 0.0 0.0
11:54 5.7 5.6 99 1021.4 8.3 NE 9.2 0.0 0.0
11:55 5.7 5.6 99 1021.4 6.0 NE 9.2 0.0 0.0
11:56 5.7 5.6 99 1021.4 8.3 NE 9.2 0.0 0.0
11:57 5.7 5.6 99 1021.3 5.4 N 9.2 0.0 0.0
11:58 5.7 5.6 99 1021.4 3.8 N 9.2 0.0 0.0
11:59 5.7 5.6 99 1021.3 3.8 NE 9.2 0.0 0.0
12:00 5.7 5.6 99 1021.4 4.5 NE 9.2 0.0 0.0
12:01 5.7 5.6 99 1021.5 6.0 NE 8.3 0.0 0.0
12:02 5.7 5.6 99 1021.4 6.0 NE 8.3 0.0 0.0
12:03 5.7 5.6 99 1021.3 6.9 NE 8.3 0.0 0.0
12:04 5.7 5.6 99 1021.3 4.5 NE 8.3 0.0 0.0
12:05 5.7 5.6 99 1021.4 6.9 NE 8.3 0.0 0.0
12:06 5.7 5.6 99 1021.2 3.8 NE 6.9 0.0 0.0
12:07 5.7 5.6 99 1021.3 3.1 NE 6.9 0.0 0.0
12:08 5.7 5.6 99 1021.3 6.9 NE 6.9 0.0 0.0
12:10 5.7 5.6 99 1021.3 2.2 NE 6.9 0.0 0.0
12:11 5.7 5.6 99 1021.2 6.0 NE 6.9 0.0 0.0
12:13 5.7 5.6 99 1021.2 4.5 NE 6.9 0.0 0.0
12:14 5.7 5.6 99 1021.3 5.4 NE 6.9 0.0 0.0
12:15 5.7 5.6 99 1021.2 5.4 NE 6.9 0.0 0.0
12:16 5.7 5.6 99 1021.2 3.8 NE 6.9 0.0 0.0
12:17 5.7 5.6 99 1021.2 6.0 NE 6.9 0.0 0.0
12:18 5.7 5.6 99 1021.2 7.6 NE 7.6 0.0 0.0
12:19 5.7 5.6 99 1021.2 5.4 N 7.6 0.0 0.0
12:20 5.7 5.6 99 1021.0 3.8 N 7.6 0.0 0.0
12:21 5.7 5.6 99 1021.2 6.9 NE 7.6 0.0 0.0
12:22 5.7 5.6 99 1021.1 4.5 NE 7.6 0.0 0.0
12:23 5.7 5.6 99 1021.1 6.0 NE 7.6 0.0 0.0
12:24 5.7 5.6 99 1021.2 2.2 NE 7.6 0.0 0.0
12:25 5.7 5.6 99 1021.2 6.0 NE 7.6 0.0 0.0
12:26 5.8 5.7 99 1021.1 3.1 NE 7.6 0.0 0.0
12:27 5.8 5.7 99 1021.2 3.1 NE 7.6 0.0 0.0
12:28 5.8 5.7 99 1021.1 5.4 NE 7.6 0.0 0.0
12:29 5.9 5.8 99 1021.2 3.8 NE 6.9 0.0 0.0
12:30 5.9 5.8 99 1021.2 3.1 NE 6.9 0.0 0.0
12:32 6.0 5.9 99 1021.0 3.8 NE 6.0 0.0 0.0
12:33 6.0 5.9 99 1021.1 2.2 NE 6.0 0.0 0.0
12:34 6.0 5.9 99 1021.1 9.8 NE 9.8 0.0 0.0
12:35 6.0 5.9 99 1021.2 9.8 N 9.8 0.0 0.0
12:36 6.1 6.0 99 1021.1 8.3 NE 9.8 0.0 0.0
12:37 6.1 6.0 99 1021.2 6.9 NE 9.8 0.0 0.0
12:38 6.1 6.0 99 1021.2 9.2 N 9.8 0.0 0.0
12:39 6.1 6.0 99 1021.2 6.9 NE 9.8 0.0 0.0
12:40 6.1 6.0 99 1021.2 4.5 N 9.8 0.0 0.0
12:41 6.2 6.1 99 1021.1 5.4 N 9.8 0.0 0.0
12:42 6.1 6.0 99 1021.0 6.0 NE 9.8 0.0 0.0
12:43 6.1 6.0 99 1021.1 3.8 NE 9.8 0.0 0.0
12:44 6.1 6.0 99 1021.1 12.1 NE 12.1 0.0 0.0
12:45 6.2 6.1 99 1021.0 8.3 NE 12.1 0.0 0.0
12:46 6.2 6.1 99 1020.9 6.9 NE 12.1 0.0 0.0
12:47 6.2 6.1 99 1021.0 11.4 NE 12.1 0.0 0.0
12:48 6.2 6.1 99 1020.9 6.0 NE 12.1 0.0 0.0
12:49 6.2 6.1 99 1020.9 4.5 NE 12.1 0.0 0.0
12:50 6.2 6.1 99 1020.9 4.5 N 12.1 0.0 0.0
12:51 6.2 6.1 99 1021.0 5.4 NE 12.1 0.0 0.0
12:52 6.2 6.1 99 1021.1 7.6 NE 12.1 0.0 0.0
12:53 6.2 6.1 99 1021.0 6.9 NE 12.1 0.0 0.0
12:54 6.2 6.1 99 1020.9 6.9 N 12.1 0.0 0.0
12:55 6.2 6.1 99 1020.9 4.5 NE 11.4 0.0 0.0
12:56 6.2 6.1 99 1020.8 6.9 NE 11.4 0.0 0.0
12:57 6.2 6.1 99 1021.0 3.8 N 7.6 0.0 0.0
12:58 6.2 6.1 99 1020.9 2.2 N 7.6 0.0 0.0
12:59 6.2 6.1 99 1020.8 4.5 E 7.6 0.0 0.0
13:00 6.2 6.1 99 1020.9 10.7 NE 10.7 0.0 0.0
13:01 6.2 6.1 99 1021.0 10.7 NE 10.7 0.0 0.0
13:02 6.2 6.1 99 1020.9 10.7 NE 10.7 0.0 0.0
13:03 6.2 6.1 99 1021.0 10.7 NE 10.7 0.0 0.0
13:04 6.2 6.1 99 1020.8 10.7 NE 10.7 0.0 0.0
13:05 6.2 6.1 99 1020.8 10.7 NE 10.7 0.0 0.0
13:06 6.2 5.9 98 1020.9 5.4 NE 10.7 0.0 0.0
13:07 6.1 5.8 98 1020.9 4.5 NE 10.7 0.0 0.0
13:08 6.1 5.8 98 1021.0 5.4 NE 10.7 0.0 0.0
13:09 6.1 5.8 98 1020.9 3.8 NE 10.7 0.0 0.0
13:10 6.1 5.8 98 1020.8 3.1 NE 10.7 0.0 0.0
13:11 6.1 5.8 98 1020.9 5.4 NE 10.7 0.0 0.0
13:12 6.1 5.8 98 1020.7 6.9 N 10.7 0.0 0.0
13:13 6.2 5.9 98 1020.7 7.6 N 10.7 0.0 0.0
13:14 6.2 5.9 98 1020.9 7.6 N 10.7 0.0 0.0
13:15 6.2 5.9 98 1020.7 5.4 NE 10.7 0.0 0.0
13:16 6.3 6.0 98 1020.7 3.8 N 9.8 0.0 0.0
13:17 6.3 6.0 98 1020.8 8.3 NE 9.8 0.0 0.0
13:18 6.3 6.0 98 1020.8 8.3 NE 9.8 0.0 0.0
13:19 6.4 6.0 97 1020.7 9.2 NE 9.8 0.0 0.0
13:20 6.4 6.0 97 1020.8 8.3 NE 9.8 0.0 0.0
13:21 6.4 6.0 97 1020.8 7.6 NE 9.8 0.0 0.0
13:22 6.4 6.0 97 1020.7 7.6 NE 9.8 0.0 0.0
13:23 6.5 6.1 97 1020.7 9.8 NE 9.8 0.0 0.0
13:24 6.5 6.1 97 1020.6 12.1 NE 12.1 0.0 0.0
13:25 6.5 6.1 97 1020.7 9.8 NE 12.1 0.0 0.0
13:27 6.5 6.1 97 1020.7 8.3 NE 12.1 0.0 0.0
13:28 6.5 6.1 97 1020.8 6.9 NE 12.1 0.0 0.0
13:29 6.5 6.1 97 1020.6 9.8 NE 12.1 0.0 0.0
13:30 6.6 6.2 97 1020.7 9.2 NE 12.1 0.0 0.0
13:31 6.6 6.0 96 1020.6 3.8 NE 12.1 0.0 0.0
13:32 6.6 6.0 96 1020.6 9.8 NE 12.1 0.0 0.0
13:33 6.6 6.0 96 1020.5 9.8 NE 12.1 0.0 0.0
13:34 6.7 6.1 96 1020.5 8.3 NE 9.8 0.0 0.0
13:35 6.6 6.0 96 1020.7 6.9 NE 9.8 0.0 0.0
13:36 6.7 6.1 96 1020.5 7.6 NE 9.8 0.0 0.0
13:37 6.7 6.1 96 1020.5 3.1 NE 9.8 0.0 0.0
13:38 6.7 6.1 96 1020.5 8.3 NE 9.8 0.0 0.0
13:39 6.6 6.0 96 1020.4 9.8 NE 9.8 0.0 0.0
13:40 6.6 6.0 96 1020.5 8.3 N 9.8 0.0 0.0
13:41 6.6 6.0 96 1020.6 8.3 NE 9.8 0.0 0.0
13:43 6.6 5.9 95 1020.4 7.6 N 9.8 0.0 0.0
13:44 6.6 5.9 95 1020.2 9.2 N 9.8 0.0 0.0
13:45 6.6 5.9 95 1020.2 6.9 NE 9.8 0.0 0.0
13:46 6.6 5.9 95 1020.3 6.9 N 9.8 0.0 0.0
13:47 6.6 5.9 95 1020.4 5.4 N 9.8 0.0 0.0
13:48 6.7 6.0 95 1020.2 12.1 NE 12.1 0.0 0.0
13:49 6.7 6.0 95 1020.4 10.7 N 12.1 0.0 0.0
13:50 6.8 6.1 95 1020.4 3.8 SE 12.1 0.0 0.0
13:51 6.8 6.1 95 1020.4 3.8 N 12.1 0.0 0.0
13:52 6.8 5.9 94 1020.3 5.4 NE 12.1 0.0 0.0
13:53 6.8 6.1 95 1020.2 4.5 NE 12.1 0.0 0.0
13:54 6.8 5.9 94 1020.2 4.5 N 12.1 0.0 0.0
13:55 6.8 5.9 94 1020.2 7.6 NE 12.1 0.0 0.0
13:56 6.8 5.9 94 1020.3 4.5 N 12.1 0.0 0.0
13:57 6.8 5.9 94 1020.2 6.9 NE 12.1 0.0 0.0
13:59 6.8 5.9 94 1020.2 9.2 N 10.7 0.0 0.0
14:00 6.8 5.9 94 1020.2 6.0 NE 9.2 0.0 0.0
14:01 6.8 5.9 94 1020.2 9.8 NE 9.8 0.0 0.0
14:02 6.8 5.9 94 1020.2 9.8 NE 9.8 0.0 0.0
14:03 6.8 5.9 94 1020.3 9.8 NE 9.8 0.0 0.0
14:04 6.8 5.9 94 1020.1 9.8 NE 9.8 0.0 0.0
14:05 6.8 5.9 94 1020.2 9.8 NE 9.8 0.0 0.0
14:06 6.8 5.9 94 1020.1 6.0 N 9.8 0.0 0.0
14:07 6.8 5.7 93 1020.1 6.9 N 9.8 0.0 0.0
14:08 6.7 5.8 94 1020.2 7.6 NE 9.8 0.0 0.0
14:10 6.8 5.7 93 1020.2 7.6 NE 9.8 0.0 0.0
14:11 6.8 5.7 93 1020.0 8.3 N 9.8 0.0 0.0
14:12 6.9 5.8 93 1020.1 6.9 NE 9.8 0.0 0.0
14:14 7.1 6.0 93 1020.1 9.2 NE 9.8 0.0 0.0
14:15 7.2 6.1 93 1020.1 8.3 NE 9.8 0.0 0.0
14:16 7.2 6.1 93 1020.1 9.8 NE 9.8 0.0 0.0
14:17 7.3 6.2 93 1020.1 10.7 NE 10.7 0.0 0.0
14:18 7.3 6.2 93 1020.1 6.9 N 10.7 0.0 0.0
14:19 7.2 6.1 93 1020.1 6.0 NW 10.7 0.0 0.0
14:20 7.2 6.1 93 1020.1 10.7 NE 10.7 0.0 0.0
14:21 7.2 6.1 93 1020.0 6.0 NE 10.7 0.0 0.0
14:22 7.1 6.0 93 1020.1 4.5 N 10.7 0.0 0.0
14:24 7.1 6.0 93 1019.9 11.4 NE 11.4 0.0 0.0
14:25 7.1 6.0 93 1020.0 7.6 NE 11.4 0.0 0.0
14:26 7.1 5.9 92 1020.0 8.3 NE 11.4 0.0 0.0
14:27 7.0 5.8 92 1020.0 3.8 N 11.4 0.0 0.0
14:28 7.0 5.8 92 1020.0 6.0 NE 11.4 0.0 0.0
14:29 6.9 5.7 92 1020.1 7.6 NE 11.4 0.0 0.0
14:30 6.9 5.7 92 1020.1 7.6 N 11.4 0.0 0.0
14:31 6.9 5.7 92 1020.2 7.6 NE 11.4 0.0 0.0
14:32 6.9 5.7 92 1019.9 5.4 NE 11.4 0.0 0.0
14:33 6.8 5.6 92 1020.1 6.0 NE 11.4 0.0 0.0
14:34 6.8 5.6 92 1020.0 5.4 N 8.3 0.0 0.0
14:35 6.7 5.5 92 1019.9 8.3 NE 8.3 0.0 0.0
14:37 6.7 5.5 92 1019.9 9.2 N 9.2 0.0 0.0
14:38 6.7 5.5 92 1020.0 6.0 NE 9.2 0.0 0.0
14:39 6.7 5.5 92 1019.8 6.9 NE 11.4 0.0 0.0
14:40 6.6 5.4 92 1020.0 5.4 NE 11.4 0.0 0.0
14:41 6.6 5.4 92 1020.0 9.2 NE 11.4 0.0 0.0
14:42 6.6 5.4 92 1020.0 6.0 NE 11.4 0.0 0.0
14:43 6.6 5.4 92 1020.0 6.9 N 11.4 0.0 0.0
14:44 6.6 5.4 92 1019.9 4.5 NE 11.4 0.0 0.0
14:45 6.6 5.4 92 1020.1 6.9 NE 11.4 0.0 0.0
14:46 6.6 5.4 92 1020.1 6.0 N 11.4 0.0 0.0
14:47 6.6 5.4 92 1019.9 4.5 N 11.4 0.0 0.0
14:48 6.7 5.5 92 1019.9 7.6 NE 11.4 0.0 0.0
14:49 6.7 5.5 92 1019.8 4.5 N 9.2 0.0 0.0
14:50 6.7 5.5 92 1020.0 3.1 N 9.2 0.0 0.0
14:51 6.7 5.5 92 1019.9 3.1 N 7.6 0.0 0.0
14:52 6.7 5.5 92 1019.9 6.0 NE 7.6 0.0 0.0
14:53 6.7 5.5 92 1019.8 6.0 N 7.6 0.0 0.0
14:54 6.6 5.4 92 1020.0 9.2 NE 9.2 0.0 0.0
14:55 6.6 5.4 92 1019.8 6.0 N 9.2 0.0 0.0
14:56 6.6 5.4 92 1019.9 8.3 NE 9.2 0.0 0.0
14:57 6.7 5.5 92 1019.8 7.6 N 9.2 0.0 0.0
14:58 6.7 5.5 92 1019.7 6.0 NE 9.2 0.0 0.0
14:59 6.7 5.5 92 1019.8 8.3 N 9.2 0.0 0.0
15:00 6.7 5.5 92 1019.7 13.0 NE 13.0 0.0 0.0
15:01 6.6 5.2 91 1019.8 4.5 N 13.0 0.0 0.0
15:02 6.6 5.2 91 1019.6 4.5 N 13.0 0.0 0.0
15:04 6.6 5.2 91 1019.9 4.5 N 13.0 0.0 0.0
15:05 6.6 5.2 91 1019.9 4.5 N 13.0 0.0 0.0
15:06 6.6 5.2 91 1019.7 4.5 N 13.0 0.0 0.0
15:07 6.5 5.1 91 1019.6 13.0 NE 13.0 0.0 0.0
15:08 6.4 5.0 91 1019.7 9.8 N 13.0 0.0 0.0
15:09 6.4 5.0 91 1019.7 9.2 N 13.0 0.0 0.0
15:10 6.3 4.9 91 1019.7 8.3 N 13.0 0.0 0.0
15:11 6.3 4.9 91 1019.7 7.6 NE 13.0 0.0 0.0
15:12 6.3 4.9 91 1019.8 3.8 NW 13.0 0.0 0.0
15:13 6.2 4.8 91 1019.9 8.3 NE 13.0 0.0 0.0
15:14 6.2 4.8 91 1019.9 6.0 N 13.0 0.0 0.0
15:15 6.2 4.8 91 1019.8 11.4 NW 13.0 0.0 0.0
15:16 6.2 4.8 91 1019.7 7.6 N 13.0 0.0 0.0
15:17 6.1 4.7 91 1019.7 8.3 NE 13.0 0.0 0.0
15:18 6.1 4.7 91 1019.7 8.3 N 11.4 0.0 0.0
15:19 6.1 4.7 91 1019.7 12.1 NE 12.1 0.0 0.0
15:20 6.1 4.7 91 1019.7 4.5 N 12.1 0.0 0.0
15:21 6.0 4.6 91 1019.7 4.5 N 12.1 0.0 0.0
15:22 6.0 4.6 91 1019.7 3.8 N 12.1 0.0 0.0
15:23 6.0 4.6 91 1019.7 6.9 NE 12.1 0.0 0.0
15:24 6.0 4.6 91 1019.7 9.2 NE 12.1 0.0 0.0
15:25 5.9 4.5 91 1019.7 6.0 N 12.1 0.0 0.0
15:26 5.9 4.5 91 1019.7 3.1 SE 12.1 0.0 0.0
15:27 5.9 4.5 91 1019.7 5.4 NE 12.1 0.0 0.0
15:29 5.9 4.5 91 1019.4 6.9 N 12.1 0.0 0.0
15:30 5.9 4.5 91 1019.6 6.0 NE 9.2 0.0 0.0
15:31 5.8 4.4 91 1019.5 8.3 N 9.2 0.0 0.0
15:32 5.8 4.4 91 1019.6 13.0 NE 13.0 0.0 0.0
15:33 5.8 4.4 91 1019.6 9.2 NE 13.0 0.0 0.0
15:34 5.8 4.4 91 1019.7 6.9 N 13.0 0.0 0.0
15:35 5.8 4.4 91 1019.6 7.6 NE 13.0 0.0 0.0
15:36 5.8 4.4 91 1019.6 9.2 NE 13.0 0.0 0.0
15:37 5.7 4.3 91 1019.6 6.0 NE 13.0 0.0 0.0
15:38 5.7 4.3 91 1019.7 8.3 N 13.0 0.0 0.0
15:39 5.7 4.3 91 1019.6 8.3 NE 13.0 0.0 0.0
15:40 5.7 4.3 91 1019.6 9.2 NE 13.0 0.0 0.0
15:41 5.7 4.3 91 1019.5 9.2 NE 13.0 0.0 0.0
15:42 5.7 4.3 91 1019.5 6.0 NE 13.0 0.0 0.0
15:43 5.7 4.3 91 1019.6 7.6 N 9.2 0.0 0.0
15:44 5.6 4.1 90 1019.6 3.8 N 9.2 0.0 0.0
15:45 5.6 4.2 91 1019.5 6.0 NE 9.2 0.0 0.0
15:46 5.6 4.1 90 1019.5 15.2 NE 15.2 0.0 0.0
15:47 5.6 4.1 90 1019.7 9.2 NE 15.2 0.0 0.0
15:48 5.6 4.1 90 1019.5 10.7 N 15.2 0.0 0.0
15:49 5.6 4.1 90 1019.6 10.7 N 15.2 0.0 0.0
15:50 5.6 4.1 90 1019.6 8.3 N 15.2 0.0 0.0
15:51 5.5 4.0 90 1019.6 10.7 NE 15.2 0.0 0.0
15:52 5.4 3.9 90 1019.6 7.6 N 15.2 0.0 0.0
15:53 5.4 3.9 90 1019.6 9.2 NE 15.2 0.0 0.0
15:54 5.5 4.0 90 1019.7 9.8 NE 15.2 0.0 0.0
15:55 5.5 4.0 90 1019.7 8.3 N 15.2 0.0 0.0
15:56 5.5 4.0 90 1019.7 6.9 NE 15.2 0.0 0.0
15:57 5.5 4.0 90 1019.5 6.9 N 10.7 0.0 0.0
15:58 5.4 3.9 90 1019.6 6.0 NE 10.7 0.0 0.0
16:00 5.4 3.9 90 1019.7 8.3 N 10.7 0.0 0.0
16:01 5.4 3.9 90 1019.7 9.2 N 10.7 0.0 0.0
16:02 5.4 3.9 90 1019.7 7.6 NE 9.8 0.0 0.0
16:03 5.4 3.9 90 1019.6 7.6 NE 9.8 0.0 0.0
16:04 5.4 3.9 90 1019.6 7.6 NE 9.8 0.0 0.0
16:05 5.4 3.9 90 1019.7 7.6 NE 9.8 0.0 0.0
16:06 5.4 3.9 90 1019.7 7.6 NE 9.8 0.0 0.0
16:07 5.4 3.9 90 1019.7 7.6 NE 9.8 0.0 0.0
16:08 5.4 3.9 90 1019.7 8.3 N 9.8 0.0 0.0
16:09 5.4 3.9 90 1019.7 3.8 N 9.8 0.0 0.0
16:10 5.4 3.9 90 1019.7 9.2 NE 9.2 0.0 0.0
16:12 5.3 3.8 90 1019.7 7.6 NE 9.2 0.0 0.0
16:13 5.3 3.8 90 1019.9 4.5 N 9.2 0.0 0.0
16:15 5.3 3.8 90 1019.6 5.4 NE 9.2 0.0 0.0
16:16 5.3 3.8 90 1019.7 8.3 NE 9.2 0.0 0.0
16:18 5.2 3.7 90 1019.7 6.0 N 9.2 0.0 0.0
16:19 5.2 3.7 90 1019.8 11.4 NE 11.4 0.0 0.0
16:20 5.2 3.7 90 1019.7 5.4 NE 11.4 0.0 0.0
16:21 5.2 3.7 90 1019.8 6.0 NE 11.4 0.0 0.0
16:22 5.2 3.7 90 1019.8 6.0 NE 11.4 0.0 0.0
16:23 5.2 3.7 90 1019.8 9.2 N 11.4 0.0 0.0
16:24 5.2 3.7 90 1019.7 8.3 N 11.4 0.0 0.0
16:25 5.2 3.7 90 1019.7 8.3 NE 11.4 0.0 0.0
16:26 5.2 3.7 90 1019.7 11.4 NE 11.4 0.0 0.0
16:27 5.2 3.7 90 1019.9 6.9 N 11.4 0.0 0.0
16:28 5.1 3.6 90 1019.7 8.3 NE 11.4 0.0 0.0
16:29 5.1 3.6 90 1019.6 9.2 N 11.4 0.0 0.0
16:31 5.1 3.6 90 1019.6 6.0 NE 11.4 0.0 0.0
16:32 5.1 3.6 90 1019.6 5.4 NE 11.4 0.0 0.0
16:33 5.1 3.6 90 1019.5 1.6 NE 11.4 0.0 0.0
16:34 5.1 3.6 90 1019.7 3.8 NE 11.4 0.0 0.0
16:35 5.1 3.6 90 1019.6 3.8 NE 11.4 0.0 0.0
16:36 5.1 3.6 90 1019.7 3.8 NE 11.4 0.0 0.0
16:37 5.1 3.6 90 1019.7 4.5 NE 9.2 0.0 0.0
16:38 5.0 3.5 90 1019.7 6.9 NE 9.2 0.0 0.0
16:39 5.1 3.6 90 1019.7 3.8 NE 9.2 0.0 0.0
16:40 5.1 3.6 90 1019.7 3.8 N 8.3 0.0 0.0
16:41 5.1 3.6 90 1019.8 2.2 N 8.3 0.0 0.0
16:42 5.0 3.5 90 1019.6 4.5 NE 8.3 0.0 0.0
16:43 5.1 3.6 90 1019.7 6.0 NE 8.3 0.0 0.0
16:44 5.0 3.5 90 1019.7 10.7 NE 10.7 0.0 0.0
16:45 5.0 3.5 90 1019.7 14.5 NE 14.5 0.0 0.0
16:46 5.0 3.5 90 1019.7 6.0 NE 14.5 0.0 0.0
16:47 5.0 3.5 90 1019.7 4.5 N 14.5 0.0 0.0
16:48 5.0 3.5 90 1019.7 6.0 NE 14.5 0.0 0.0
16:50 5.0 3.5 90 1019.7 5.4 NE 14.5 0.0 0.0
16:51 4.9 3.4 90 1019.7 3.8 NE 14.5 0.0 0.0
16:52 5.0 3.5 90 1019.7 7.6 N 14.5 0.0 0.0
16:53 4.9 3.4 90 1019.7 12.1 NE 14.5 0.0 0.0
16:54 4.9 3.4 90 1019.7 6.0 NE 14.5 0.0 0.0
16:55 4.9 3.4 90 1019.7 6.9 NE 14.5 0.0 0.0
16:56 4.8 3.3 90 1019.6 6.9 N 12.1 0.0 0.0
16:57 4.8 3.3 90 1019.6 5.4 NE 12.1 0.0 0.0
16:58 4.8 3.1 89 1019.6 4.5 NE 12.1 0.0 0.0
17:00 4.8 3.1 89 1019.7 6.9 NE 12.1 0.0 0.0
17:01 4.8 3.1 89 1019.7 6.9 NE 12.1 0.0 0.0
17:02 4.8 3.1 89 1019.6 3.1 NE 12.1 0.0 0.0
17:03 4.8 3.1 89 1019.6 3.1 NE 9.8 0.0 0.0
17:04 4.8 3.1 89 1019.6 3.1 NE 9.2 0.0 0.0
17:05 4.8 3.1 89 1019.6 3.1 NE 9.2 0.0 0.0
17:06 4.8 3.1 89 1019.7 3.1 NE 6.9 0.0 0.0
17:07 4.8 3.1 89 1019.5 3.1 NE 6.9 0.0 0.0
17:08 4.6 2.9 89 1019.6 6.9 NE 6.9 0.0 0.0
17:09 4.6 2.9 89 1019.7 5.4 NE 6.9 0.0 0.0
17:10 4.6 2.9 89 1019.6 6.9 N 6.9 0.0 0.0
17:11 4.5 2.8 89 1019.7 6.9 NE 6.9 0.0 0.0
17:12 4.5 2.8 89 1019.7 8.3 NE 8.3 0.0 0.0
17:14 4.5 2.8 89 1019.7 3.1 NE 8.3 0.0 0.0
17:15 4.4 2.7 89 1019.7 6.9 NE 8.3 0.0 0.0
17:16 4.4 2.7 89 1019.7 8.3 NE 8.3 0.0 0.0
17:17 4.4 2.7 89 1019.5 8.3 NW 8.3 0.0 0.0
17:18 4.4 2.7 89 1019.7 6.9 NE 8.3 0.0 0.0
17:19 4.3 2.7 89 1019.7 5.4 NE 8.3 0.0 0.0
17:20 4.3 2.7 89 1019.7 5.4 NE 8.3 0.0 0.0
17:21 4.3 2.5 88 1019.7 6.0 N 8.3 0.0 0.0
17:22 4.2 2.4 88 1019.6 5.4 NE 8.3 0.0 0.0
17:23 4.2 2.6 89 1019.7 5.4 N 8.3 0.0 0.0
17:24 4.2 2.4 88 1019.8 6.9 NE 8.3 0.0 0.0
17:25 4.2 2.4 88 1019.7 5.4 NE 8.3 0.0 0.0
17:26 4.1 2.3 88 1019.6 3.8 NE 8.3 0.0 0.0
17:27 4.1 2.3 88 1019.5 4.5 NE 8.3 0.0 0.0
17:28 4.1 2.3 88 1019.5 6.0 NE 8.3 0.0 0.0
17:29 4.1 2.3 88 1019.6 4.5 NE 8.3 0.0 0.0
17:31 4.1 2.3 88 1019.5 2.2 NE 8.3 0.0 0.0
17:32 4.0 2.2 88 1019.5 3.1 NE 8.3 0.0 0.0
17:33 4.0 2.2 88 1019.5 3.1 NE 6.9 0.0 0.0
17:34 4.0 2.2 88 1019.5 6.9 NE 6.9 0.0 0.0
17:36 3.9 2.1 88 1019.6 4.5 NE 6.9 0.0 0.0
17:38 3.9 2.1 88 1019.6 5.4 NE 6.9 0.0 0.0
17:40 3.9 2.1 88 1019.6 2.2 N 6.9 0.0 0.0
17:42 3.8 2.0 88 1019.6 3.1 NE 6.9 0.0 0.0
17:43 3.8 2.0 88 1019.6 3.1 NE 6.9 0.0 0.0
17:44 3.7 1.9 88 1019.6 5.4 NE 6.9 0.0 0.0
17:46 3.7 1.9 88 1019.6 4.5 NE 5.4 0.0 0.0
17:47 3.7 1.9 88 1019.7 3.8 NE 5.4 0.0 0.0
17:48 3.7 1.9 88 1019.7 3.8 NE 5.4 0.0 0.0
17:49 3.6 1.8 88 1019.7 2.2 NE 5.4 0.0 0.0
17:50 3.6 1.8 88 1019.5 2.2 NE 5.4 0.0 0.0
17:51 3.6 1.8 88 1019.7 2.2 NE 5.4 0.0 0.0
17:52 3.5 1.7 88 1019.6 2.2 NE 5.4 0.0 0.0
17:54 3.5 1.7 88 1019.7 3.1 NE 5.4 0.0 0.0
17:55 3.5 1.7 88 1019.5 4.5 NE 4.5 0.0 0.0
17:56 3.5 1.7 88 1019.7 3.1 NE 4.5 0.0 0.0
17:57 3.5 1.7 88 1019.7 3.1 NE 4.5 0.0 0.0
17:58 3.5 1.7 88 1019.7 7.6 NE 7.6 0.0 0.0
17:59 3.4 1.6 88 1019.7 3.1 NE 7.6 0.0 0.0
18:00 3.4 1.6 88 1019.6 4.5 NE 7.6 0.0 0.0
18:01 3.3 1.5 88 1019.7 5.4 NE 7.6 0.0 0.0
18:02 3.3 1.5 88 1019.6 3.8 NE 7.6 0.0 0.0
18:03 3.3 1.5 88 1019.7 6.0 NE 7.6 0.0 0.0
18:04 3.3 1.5 88 1019.8 6.0 NE 7.6 0.0 0.0
18:05 3.3 1.5 88 1019.6 6.0 NE 7.6 0.0 0.0
18:06 3.3 1.5 88 1019.5 6.0 NE 7.6 0.0 0.0
18:07 3.3 1.5 88 1019.6 6.0 NE 7.6 0.0 0.0
18:08 3.3 1.5 88 1019.7 3.1 N 6.0 0.0 0.0
18:09 3.2 1.4 88 1019.7 3.8 N 6.0 0.0 0.0
18:10 3.3 1.5 88 1019.8 4.5 N 6.0 0.0 0.0
18:12 3.2 1.4 88 1019.7 3.1 N 6.0 0.0 0.0
18:13 3.2 1.4 88 1019.9 3.1 NE 6.0 0.0 0.0
18:15 3.2 1.4 88 1019.7 4.5 NE 6.0 0.0 0.0
18:16 3.2 1.4 88 1019.8 6.0 NE 6.0 0.0 0.0
18:18 3.2 1.4 88 1019.7 4.5 NE 6.0 0.0 0.0
18:19 3.2 1.4 88 1019.8 3.8 N 7.6 0.0 0.0
18:20 3.2 1.4 88 1019.7 4.5 N 7.6 0.0 0.0
18:21 3.2 1.6 89 1019.8 5.4 NE 7.6 0.0 0.0
18:22 3.2 1.6 89 1019.8 6.9 NE 7.6 0.0 0.0
18:23 3.1 1.3 88 1019.9 8.3 NE 8.3 0.0 0.0
18:24 3.1 1.3 88 1019.7 4.5 NE 8.3 0.0 0.0
18:25 3.1 1.3 88 1019.8 3.8 N 8.3 0.0 0.0
18:26 3.1 1.3 88 1019.8 5.4 NE 8.3 0.0 0.0
18:27 3.1 1.5 89 1019.7 3.8 NE 8.3 0.0 0.0
18:28 3.1 1.5 89 1019.8 4.5 NE 8.3 0.0 0.0
18:29 3.1 1.3 88 1019.8 5.4 NE 8.3 0.0 0.0
18:30 3.1 1.3 88 1019.8 5.4 NE 8.3 0.0 0.0
18:31 3.1 1.3 88 1019.7 4.5 NE 8.3 0.0 0.0
18:32 3.1 1.5 89 1019.7 4.5 NE 8.3 0.0 0.0
18:33 3.1 1.5 89 1019.8 7.6 NE 7.6 0.0 0.0
18:34 3.1 1.3 88 1019.8 6.9 NE 7.6 0.0 0.0
18:35 3.0 1.2 88 1019.7 7.6 NE 7.6 0.0 0.0
18:36 3.0 1.2 88 1020.0 7.6 NE 7.6 0.0 0.0
18:37 3.0 1.2 88 1019.8 8.3 NE 8.3 0.0 0.0
18:38 3.0 1.2 88 1019.8 3.1 NE 8.3 0.0 0.0
18:39 3.0 1.2 88 1019.8 6.0 NE 8.3 0.0 0.0
18:40 3.0 1.2 88 1019.9 7.6 NE 8.3 0.0 0.0
18:42 3.0 1.2 88 1019.7 7.6 NE 8.3 0.0 0.0
18:43 3.0 1.2 88 1019.7 5.4 NE 8.3 0.0 0.0
18:44 3.0 1.4 89 1019.7 4.5 NE 8.3 0.0 0.0
18:45 3.0 1.4 89 1019.7 4.5 NE 8.3 0.0 0.0
18:46 2.9 1.3 89 1019.9 7.6 NE 8.3 0.0 0.0
18:47 2.9 1.3 89 1019.7 5.4 NNE 8.3 0.0 0.0
18:48 2.9 1.3 89 1019.7 3.8 NE 7.6 0.0 0.0
18:49 2.9 1.3 89 1019.7 4.5 NE 7.6 0.0 0.0
18:50 2.9 1.3 89 1019.7 3.1 NE 7.6 0.0 0.0
18:51 2.9 1.3 89 1019.7 2.2 NE 7.6 0.0 0.0
18:53 2.9 1.3 89 1019.6 5.4 NE 7.6 0.0 0.0
18:54 2.9 1.3 89 1019.6 3.8 N 7.6 0.0 0.0
18:55 2.9 1.3 89 1019.7 4.5 NE 7.6 0.0 0.0
18:56 2.9 1.3 89 1019.7 6.9 NE 6.9 0.0 0.0
18:57 2.9 1.3 89 1019.6 4.5 NE 6.9 0.0 0.0
18:58 2.9 1.3 89 1019.7 2.2 NE 6.9 0.0 0.0
18:59 2.9 1.3 89 1019.6 4.5 NE 6.9 0.0 0.0
19:01 2.8 1.2 89 1019.7 5.4 NE 7.6 0.0 0.0
19:02 2.8 1.2 89 1019.7 5.4 NE 7.6 0.0 0.0
19:03 2.8 1.2 89 1019.7 6.0 NE 7.6 0.0 0.0
19:04 2.8 1.2 89 1019.7 6.0 NE 7.6 0.0 0.0
19:05 2.8 1.2 89 1019.6 6.0 NE 7.6 0.0 0.0
19:07 2.8 1.2 89 1019.6 6.0 NE 7.6 0.0 0.0
19:08 2.8 1.2 89 1019.7 6.0 NE 7.6 0.0 0.0
19:09 2.8 1.2 89 1019.7 6.0 NE 7.6 0.0 0.0
19:10 2.9 1.3 89 1019.7 6.9 NE 7.6 0.0 0.0
19:11 2.8 1.2 89 1019.8 3.8 NE 6.9 0.0 0.0
19:12 2.8 1.2 89 1019.7 6.0 NNE 6.9 0.0 0.0
19:13 2.9 1.3 89 1019.7 6.0 NE 6.9 0.0 0.0
19:14 2.8 1.2 89 1019.6 6.0 N 6.9 0.0 0.0
19:15 2.8 1.2 89 1019.7 4.5 N 6.9 0.0 0.0
19:17 2.8 1.2 89 1019.9 6.0 N 6.9 0.0 0.0
19:18 2.8 1.2 89 1019.6 6.0 NE 6.9 0.0 0.0
19:19 2.8 1.2 89 1019.6 6.0 NW 6.9 0.0 0.0
19:20 2.8 1.2 89 1019.5 8.3 NE 8.3 0.0 0.0
19:21 2.8 1.2 89 1019.6 6.9 NE 8.3 0.0 0.0
19:22 2.8 1.2 89 1019.7 6.0 NE 8.3 0.0 0.0
19:24 2.8 1.2 89 1019.5 6.0 NE 8.3 0.0 0.0
19:25 2.9 1.3 89 1019.4 5.4 NE 8.3 0.0 0.0
19:26 2.9 1.3 89 1019.5 5.4 N 8.3 0.0 0.0
19:27 2.9 1.3 89 1019.5 4.5 N 8.3 0.0 0.0
19:28 2.9 1.3 89 1019.4 6.0 NE 8.3 0.0 0.0
19:30 2.8 1.2 89 1019.4 9.8 NE 9.8 0.0 0.0
19:31 2.8 1.2 89 1019.4 6.0 N 9.8 0.0 0.0
19:32 2.9 1.3 89 1019.5 8.3 NE 9.8 0.0 0.0
19:33 2.8 1.2 89 1019.5 8.3 NE 9.8 0.0 0.0
19:34 2.8 1.2 89 1019.5 6.0 N 9.8 0.0 0.0
19:35 2.9 1.3 89 1019.5 4.5 N 9.8 0.0 0.0
19:37 2.8 1.2 89 1019.6 4.5 N 9.8 0.0 0.0
19:38 2.8 1.2 89 1019.5 6.0 NE 9.8 0.0 0.0
19:39 2.8 1.2 89 1019.5 4.5 NE 9.8 0.0 0.0
19:42 2.8 1.2 89 1019.6 7.6 NE 8.3 0.0 0.0
19:44 2.8 1.2 89 1019.6 3.8 N 7.6 0.0 0.0
19:46 2.8 1.2 89 1019.5 6.0 NE 7.6 0.0 0.0
19:48 2.8 1.0 88 1019.5 4.5 NE 7.6 0.0 0.0
19:50 2.8 1.2 89 1019.7 3.1 N 7.6 0.0 0.0
19:53 2.7 0.9 88 1019.6 3.1 NE 6.0 0.0 0.0
19:55 2.7 0.9 88 1019.6 7.6 NE 7.6 0.0 0.0
19:56 2.7 0.9 88 1019.5 5.4 NE 8.3 0.0 0.0
19:57 2.7 0.9 88 1019.5 4.5 NE 8.3 0.0 0.0
19:59 2.7 0.9 88 1019.6 6.0 NE 8.3 0.0 0.0
20:00 2.7 0.9 88 1019.7 6.0 NE 8.3 0.0 0.0
20:01 2.7 0.9 88 1019.5 4.5 NE 8.3 0.0 0.0
20:03 2.8 1.0 88 1019.4 5.4 N 8.3 0.0 0.0
20:04 2.8 1.0 88 1019.6 5.4 NE 8.3 0.0 0.0
20:05 2.8 1.0 88 1019.4 5.4 NE 8.3 0.0 0.0
20:07 2.8 1.0 88 1019.4 5.4 NE 7.6 0.0 0.0
20:08 2.8 1.0 88 1019.6 5.4 NE 6.0 0.0 0.0
20:10 3.0 1.4 89 1019.4 9.2 N 9.2 0.0 0.0
20:11 3.0 1.4 89 1019.4 9.2 NE 9.2 0.0 0.0
20:13 3.0 1.4 89 1019.3 7.6 NE 9.2 0.0 0.0
20:15 3.1 1.5 89 1019.3 6.9 NE 9.2 0.0 0.0
20:16 3.2 1.6 89 1019.3 8.3 NE 9.2 0.0 0.0
20:18 3.2 1.6 89 1019.4 5.4 NE 9.2 0.0 0.0
20:20 3.3 1.7 89 1019.4 3.1 NE 9.2 0.0 0.0
20:22 3.3 1.7 89 1019.5 6.0 NE 9.2 0.0 0.0
20:24 3.3 1.7 89 1019.3 6.0 NE 9.2 0.0 0.0
20:26 3.3 1.7 89 1019.3 9.2 NE 9.2 0.0 0.0
20:28 3.3 1.7 89 1019.4 8.3 NE 9.2 0.0 0.0
20:30 3.4 1.8 89 1019.2 9.8 N 9.8 0.0 0.0
20:31 3.4 1.8 89 1019.2 4.5 NE 9.8 0.0 0.0
20:32 3.4 1.8 89 1019.3 5.4 NE 9.8 0.0 0.0
20:34 3.4 1.8 89 1019.1 7.6 NE 9.8 0.0 0.0
20:35 3.4 1.8 89 1019.2 3.8 NE 9.8 0.0 0.0
20:37 3.4 1.8 89 1019.2 6.0 N 9.8 0.0 0.0
20:38 3.5 1.9 89 1019.2 9.2 NE 9.8 0.0 0.0
20:39 3.5 1.9 89 1019.2 4.5 NE 9.8 0.0 0.0
20:40 3.5 1.9 89 1019.1 3.1 NE 9.2 0.0 0.0
20:42 3.5 1.9 89 1019.1 7.6 NE 9.2 0.0 0.0
20:43 3.5 1.9 89 1019.1 4.5 NE 9.2 0.0 0.0
20:44 3.5 1.9 89 1019.2 3.1 NE 9.2 0.0 0.0
20:46 3.5 1.9 89 1019.0 4.5 NE 9.2 0.0 0.0
20:47 3.5 1.9 89 1019.2 3.8 N 9.2 0.0 0.0
20:48 3.5 1.9 89 1019.3 3.8 N 8.3 0.0 0.0
20:50 3.5 2.0 90 1019.0 7.6 N 7.6 0.0 0.0
20:51 3.5 2.0 90 1019.0 6.0 N 7.6 0.0 0.0
20:53 3.5 2.0 90 1019.0 6.0 NE 7.6 0.0 0.0
20:54 3.5 2.0 90 1019.0 7.6 NE 7.6 0.0 0.0
20:55 3.5 2.0 90 1019.0 5.4 NE 7.6 0.0 0.0
20:56 3.5 2.0 90 1019.0 7.6 NE 8.3 0.0 0.0
20:57 3.5 2.0 90 1019.0 6.0 N 8.3 0.0 0.0
20:59 3.5 2.0 90 1019.0 6.0 NE 8.3 0.0 0.0
21:00 3.6 2.0 89 1018.9 4.5 NE 8.3 0.0 0.0
21:01 3.6 2.0 89 1018.9 3.1 N 8.3 0.0 0.0
21:02 3.5 1.9 89 1018.9 11.4 NE 11.4 0.0 0.0
21:04 3.6 2.0 89 1019.0 5.4 NE 11.4 0.0 0.0
21:05 3.6 2.0 89 1019.0 3.8 NE 11.4 0.0 0.0
21:06 3.6 2.0 89 1019.0 3.8 NE 11.4 0.0 0.0
21:07 3.6 2.0 89 1018.9 3.8 NE 11.4 0.0 0.0
21:08 3.6 2.0 89 1018.9 3.8 NE 11.4 0.0 0.0
21:09 3.6 2.0 89 1019.0 3.8 NE 11.4 0.0 0.0
21:10 3.6 2.0 89 1018.9 6.9 N 11.4 0.0 0.0
21:11 3.6 2.0 89 1018.9 5.4 NE 11.4 0.0 0.0
21:13 3.6 2.0 89 1018.8 3.8 NE 6.9 0.0 0.0
21:14 3.7 2.1 89 1018.8 13.0 N 13.0 0.0 0.0
21:15 3.7 1.9 88 1018.8 13.0 N 13.0 0.0 0.0
21:16 3.7 1.9 88 1018.8 9.8 N 13.0 0.0 0.0
21:17 3.7 1.9 88 1018.7 7.6 NE 13.0 0.0 0.0
21:18 3.7 1.9 88 1018.8 10.7 NE 13.0 0.0 0.0
21:19 3.7 1.9 88 1018.8 8.3 NE 13.0 0.0 0.0
21:20 3.7 1.9 88 1018.7 10.7 N 13.0 0.0 0.0
21:21 3.7 1.9 88 1018.7 9.2 N 13.0 0.0 0.0
21:22 3.7 1.9 88 1018.7 9.2 NE 13.0 0.0 0.0
21:24 3.7 1.9 88 1018.9 5.4 NE 13.0 0.0 0.0
21:25 3.6 1.8 88 1018.7 3.1 NE 13.0 0.0 0.0
21:26 3.6 1.6 87 1018.8 4.5 N 10.7 0.0 0.0
21:27 3.6 1.6 87 1018.8 4.5 N 10.7 0.0 0.0
21:28 3.6 1.6 87 1018.9 3.8 N 10.7 0.0 0.0
21:29 3.6 1.6 87 1018.9 6.9 NE 10.7 0.0 0.0
21:30 3.6 1.6 87 1018.7 7.6 N 10.7 0.0 0.0
21:31 3.6 1.6 87 1018.8 7.6 NE 9.2 0.0 0.0
21:33 3.5 1.5 87 1018.7 6.0 N 7.6 0.0 0.0
21:34 3.5 1.5 87 1018.6 4.5 NE 7.6 0.0 0.0
21:35 3.5 1.5 87 1018.7 3.8 NE 7.6 0.0 0.0
21:36 3.5 1.5 87 1018.7 5.4 N 7.6 0.0 0.0
21:37 3.5 1.5 87 1018.7 10.7 NE 10.7 0.0 0.0
21:38 3.5 1.5 87 1018.8 7.6 NE 10.7 0.0 0.0
21:39 3.5 1.5 87 1018.8 3.8 N 10.7 0.0 0.0
21:40 3.5 1.5 87 1018.9 5.4 N 10.7 0.0 0.0
21:41 3.5 1.5 87 1018.8 4.5 N 10.7 0.0 0.0
21:43 3.5 1.5 87 1018.8 6.9 NE 10.7 0.0 0.0
21:44 3.5 1.5 87 1018.7 6.0 N 10.7 0.0 0.0
21:45 3.5 1.5 87 1018.9 4.5 N 10.7 0.0 0.0
21:46 3.5 1.5 87 1018.8 6.0 NE 10.7 0.0 0.0
21:47 3.5 1.5 87 1018.8 4.5 NE 10.7 0.0 0.0
21:48 3.5 1.5 87 1018.8 5.4 N 9.8 0.0 0.0
21:49 3.5 1.5 87 1018.8 3.8 N 6.9 0.0 0.0
21:50 3.5 1.5 87 1018.9 2.2 N 6.9 0.0 0.0
21:52 3.5 1.5 87 1018.8 6.9 NE 6.9 0.0 0.0
21:53 3.5 1.5 87 1018.8 7.6 NE 9.2 0.0 0.0
21:54 3.5 1.5 87 1018.8 3.1 NE 9.2 0.0 0.0
21:55 3.5 1.5 87 1018.8 10.7 NE 10.7 0.0 0.0
21:56 3.5 1.5 87 1018.7 8.3 NE 10.7 0.0 0.0
21:57 3.5 1.5 87 1018.7 6.0 N 10.7 0.0 0.0
21:58 3.5 1.5 87 1018.7 3.8 NE 10.7 0.0 0.0
21:59 3.5 1.5 87 1018.7 9.8 NE 10.7 0.0 0.0
22:00 3.5 1.5 87 1018.8 9.2 N 10.7 0.0 0.0
22:02 3.5 1.5 87 1018.7 8.3 NE 10.7 0.0 0.0
22:03 3.5 1.5 87 1018.6 7.6 NE 10.7 0.0 0.0
22:04 3.5 1.5 87 1018.7 8.3 NE 10.7 0.0 0.0
22:05 3.5 1.5 87 1018.6 6.9 N 9.8 0.0 0.0
22:06 3.5 1.5 87 1018.6 6.9 N 9.8 0.0 0.0
22:07 3.5 1.5 87 1018.6 6.9 N 9.8 0.0 0.0
22:08 3.5 1.5 87 1018.6 6.9 N 9.8 0.0 0.0
22:10 3.5 1.5 87 1018.5 6.9 NE 9.8 0.0 0.0
22:11 3.5 1.5 87 1018.5 4.5 NE 8.3 0.0 0.0
22:13 3.5 1.5 87 1018.5 7.6 NE 8.3 0.0 0.0
22:14 3.5 1.5 87 1018.6 6.9 E 7.6 0.0 0.0
22:16 3.4 1.6 88 1018.5 10.7 N 10.7 0.0 0.0
22:17 3.4 1.6 88 1018.5 6.9 NE 11.4 0.0 0.0
22:19 3.4 1.6 88 1018.6 4.5 NE 11.4 0.0 0.0
22:20 3.4 1.6 88 1018.4 8.3 NE 11.4 0.0 0.0
22:22 3.4 1.6 88 1018.4 5.4 N 11.4 0.0 0.0
22:23 3.4 1.6 88 1018.4 5.4 NE 11.4 0.0 0.0
22:24 3.3 1.5 88 1018.4 6.9 N 11.4 0.0 0.0
22:26 3.3 1.5 88 1018.5 13.6 N 13.6 0.0 0.0
22:27 3.3 1.5 88 1018.4 3.8 N 13.6 0.0 0.0
22:28 3.3 1.5 88 1018.5 6.9 E 13.6 0.0 0.0
22:29 3.3 1.5 88 1018.6 6.9 N 13.6 0.0 0.0
22:32 3.3 1.5 88 1018.5 7.6 N 13.6 0.0 0.0
22:33 3.3 1.5 88 1018.3 7.6 NE 13.6 0.0 0.0
22:35 3.2 1.4 88 1018.4 6.9 N 13.6 0.0 0.0
22:37 3.2 1.4 88 1018.3 4.5 NE 8.3 0.0 0.0
22:39 3.2 1.6 89 1018.2 9.2 NE 9.2 0.0 0.0
22:41 3.2 1.6 89 1018.4 8.3 NE 9.2 0.0 0.0
22:43 3.2 1.6 89 1018.2 8.3 NE 9.2 0.0 0.0
22:44 3.2 1.6 89 1018.2 7.6 N 9.2 0.0 0.0
22:45 3.2 1.6 89 1018.2 9.2 NE 9.2 0.0 0.0
22:47 3.2 1.6 89 1018.2 6.9 NE 14.5 0.0 0.0
22:49 3.2 1.6 89 1018.1 8.3 NE 14.5 0.0 0.0
22:50 3.2 1.6 89 1018.2 9.8 NE 14.5 0.0 0.0
22:52 3.2 1.6 89 1018.2 6.9 NE 14.5 0.0 0.0
22:53 3.2 1.6 89 1018.2 6.0 NE 14.5 0.0 0.0
22:54 3.2 1.6 89 1018.2 11.4 NE 14.5 0.0 0.0
22:56 3.1 1.5 89 1018.3 9.2 NE 14.5 0.0 0.0
22:58 3.1 1.5 89 1018.2 6.9 NE 12.1 0.0 0.0
22:59 3.1 1.5 89 1018.2 9.2 NE 12.1 0.0 0.0
23:00 3.1 1.5 89 1018.3 6.0 NE 12.1 0.0 0.0
23:01 3.1 1.5 89 1018.2 9.8 E 12.1 0.0 0.0
23:03 3.1 1.5 89 1018.3 7.6 NE 11.4 0.0 0.0
23:04 3.1 1.6 90 1018.2 6.0 N 10.7 0.0 0.0
23:06 3.1 1.6 90 1018.3 6.0 N 10.7 0.0 0.0
23:08 3.1 1.6 90 1018.2 6.0 N 9.8 0.0 0.0
23:09 3.1 1.6 90 1018.2 6.0 N 9.8 0.0 0.0
23:10 3.1 1.6 90 1018.3 6.0 N 9.8 0.0 0.0
23:11 3.1 1.6 90 1018.1 7.6 N 9.8 0.0 0.0
23:13 3.1 1.6 90 1018.1 4.5 N 7.6 0.0 0.0
23:14 3.1 1.6 90 1018.2 4.5 N 9.2 0.0 0.0
23:15 3.1 1.6 90 1018.2 6.9 NE 9.2 0.0 0.0
23:17 3.1 1.6 90 1018.0 8.3 SE 9.2 0.0 0.0
23:19 3.0 1.5 90 1018.0 7.6 NE 9.2 0.0 0.0
23:20 3.1 1.6 90 1018.2 8.3 N 9.2 0.0 0.0
23:21 3.1 1.6 90 1018.1 12.1 NE 12.1 0.0 0.0
23:23 3.1 1.6 90 1018.2 9.2 W 13.6 0.0 0.0
23:25 3.1 1.6 90 1018.2 6.0 NE 13.6 0.0 0.0
23:26 3.1 1.6 90 1018.2 3.8 NE 13.6 0.0 0.0
23:27 3.1 1.6 90 1018.2 6.9 NE 14.5 0.0 0.0
23:29 3.0 1.5 90 1018.2 3.8 N 14.5 0.0 0.0
23:30 3.0 1.5 90 1018.1 4.5 N 14.5 0.0 0.0
23:31 3.0 1.5 90 1018.2 6.9 NE 14.5 0.0 0.0
23:33 3.0 1.5 90 1017.9 9.2 N 14.5 0.0 0.0
23:34 3.1 1.6 90 1018.0 6.0 E 14.5 0.0 0.0
23:35 3.1 1.6 90 1018.2 7.6 NW 14.5 0.0 0.0
23:36 3.1 1.6 90 1018.2 6.9 N 14.5 0.0 0.0
23:37 3.1 1.6 90 1018.2 3.8 NW 10.7 0.0 0.0
23:38 3.1 1.6 90 1018.1 10.7 NE 10.7 0.0 0.0
23:40 3.1 1.6 90 1018.1 8.3 NE 10.7 0.0 0.0
23:41 3.1 1.6 90 1018.1 6.9 NW 10.7 0.0 0.0
23:43 3.1 1.6 90 1018.1 5.4 N 10.7 0.0 0.0
23:44 3.1 1.6 90 1017.9 8.3 N 10.7 0.0 0.0
23:45 3.1 1.6 90 1018.1 5.4 N 10.7 0.0 0.0
23:47 3.1 1.6 90 1018.1 9.2 NE 10.7 0.0 0.0
23:48 3.1 1.6 90 1018.1 9.2 N 10.7 0.0 0.0
23:49 3.1 1.6 90 1018.2 6.9 N 13.0 0.0 0.0
23:51 3.1 1.6 90 1018.1 9.8 N 13.0 0.0 0.0
23:52 3.1 1.5 89 1018.2 10.7 N 13.0 0.0 0.0
23:53 3.1 1.5 89 1018.0 7.6 NE 13.0 0.0 0.0
23:54 3.2 1.6 89 1018.1 7.6 NW 13.0 0.0 0.0
23:56 3.2 1.6 89 1018.1 7.6 NE 13.0 0.0 0.0
23:57 3.2 1.6 89 1018.1 7.6 NE 13.0 0.0 0.0
23:59 3.2 1.6 89 1018.1 9.8 N 13.0 0.0 0.0

UK - WEATHER STATION TOPSITES - UK World Weather Websites

This is a private weather station, never base important decisions or events on data from this weather station. Although every effort has been made to make the data as accurate as possible it does not meet MetOffice standards. It is proved as a guide of local weather conditions. We accept no liability for any loss which may arise from use of the data.

Copyright © Carnkie Weather 2009 - 2018.